GFSNE_250_spd_000.txt.gz
Wind_Speed
114 117 118 119 121 122 123 123 119 104 93 87 77 77 79 81 85 89 90 91 90 90 92 95 96 95 97 103 104 99 91 76 65 63 63 59 56 57
119 120 123 123 122 121 119 105 102 101 94 84 80 79 82 83 84 86 89 91 95 97 98 98 97 98 99 102 103 99 87 74 64 63 64 62 61 61
127 125 120 118 112 109 112 106 110 105 101 84 89 89 92 93 92 94 97 97 99 99 101 103 102 102 101 100 98 93 80 72 66 64 66 66 66 63
125 124 123 120 121 121 117 114 113 109 108 96 96 98 100 102 101 101 105 105 105 107 106 103 105 107 104 100 92 84 74 71 67 66 65 66 65 65
132 130 129 129 127 127 123 117 117 115 112 109 102 106 106 108 107 107 108 110 108 110 108 107 105 104 102 96 87 76 71 68 67 65 65 64 66 72
132 132 131 128 122 120 116 113 108 106 107 105 103 97 105 110 109 104 101 105 104 103 106 105 103 100 96 88 77 73 69 65 68 67 64 64 69 72
127 124 125 119 119 115 106 102 96 95 93 93 92 91 91 94 98 98 94 95 93 93 95 103 95 87 83 81 70 67 65 66 70 70 67 66 71 74
128 130 124 119 115 107 104 100 96 92 92 91 88 86 88 87 88 88 87 90 82 85 90 91 89 83 77 74 68 66 66 67 68 71 71 69 73 75
125 118 111 108 104 98 93 90 88 87 85 84 80 78 79 81 83 82 82 83 81 80 82 83 82 77 74 71 69 66 64 67 68 72 69 67 72 80
101 99 92 90 90 88 85 81 79 78 80 78 73 69 73 72 73 76 77 77 77 74 77 78 75 69 73 72 71 66 65 66 69 69 66 70 78 81
89 88 87 83 82 77 71 67 66 67 69 69 70 68 64 64 64 64 67 70 66 68 71 71 60 63 70 71 72 70 69 68 69 67 70 73 77 82
78 81 81 78 75 73 66 62 56 60 63 62 58 56 57 58 56 55 57 56 54 58 58 54 56 57 67 68 72 69 66 69 71 68 70 74 81 86
71 72 72 69 65 63 60 54 50 54 57 51 53 54 50 46 48 46 45 46 48 50 51 49 51 56 62 67 70 67 68 66 67 69 72 78 82 87
65 67 67 65 62 59 55 51 47 45 45 47 49 47 44 43 44 43 43 43 41 42 44 45 49 54 56 64 69 68 69 69 70 71 77 81 83 88
62 60 61 59 57 56 52 49 46 43 43 44 45 42 40 40 40 40 39 38 40 40 40 43 46 49 53 60 65 64 68 68 70 75 78 82 86 91
60 55 53 52 50 48 45 41 39 38 38 38 39 38 37 38 38 38 37 37 36 37 39 41 43 47 51 57 60 60 65 70 72 77 82 86 89 92
60 53 50 48 46 42 40 38 39 38 38 37 34 32 31 31 34 34 35 34 34 36 37 42 47 50 54 59 64 69 70 73 79 82 85 88 87 84
55 51 47 43 41 37 33 33 34 35 34 32 27 26 26 27 27 29 32 33 36 39 43 46 50 54 58 59 59 64 71 75 79 84 86 84 81 81
50 48 43 39 38 36 34 31 30 29 29 24 22 22 24 24 27 31 32 35 36 41 45 48 49 51 54 59 64 68 74 75 74 74 75 80 80 80
45 40 38 36 33 32 30 29 27 25 23 22 22 22 22 25 29 29 33 35 38 42 44 47 51 55 58 61 61 64 65 67 71 73 76 78 76 69
35 31 30 30 30 27 25 24 22 21 20 19 18 18 21 24 26 29 33 36 38 39 41 44 45 45 50 54 55 58 65 69 72 74 74 67 57 50
25 23 22 21 22 21 21 21 19 19 18 17 16 19 22 25 27 31 35 36 39 40 38 39 43 47 50 52 57 60 63 67 72 67 58 50 45 39
20 18 17 15 16 18 18 16 16 17 16 16 18 19 21 22 27 35 34 31 33 35 38 42 44 47 52 57 60 62 63 60 52 48 44 41 38 34

GFSNE_250_spd_003.txt.gz
Wind_Speed
120 122 124 127 129 129 130 132 132 125 119 119 116 113 115 114 110 110 109 104 102 100 101 98 96 95 93 92 90 88 88 89 91 91 92 92 88 82
132 133 133 135 133 133 132 132 132 131 123 113 116 115 114 114 112 112 111 109 107 105 105 107 106 101 99 98 98 95 94 91 92 93 94 94 88 81
140 139 137 137 135 136 137 134 129 125 122 111 111 111 114 116 116 117 113 108 106 106 106 109 110 107 105 102 101 99 97 95 96 96 94 93 90 78
141 141 142 138 133 129 126 124 122 122 115 102 105 109 109 111 107 108 107 104 103 103 104 106 107 107 105 103 102 102 96 97 99 98 94 89 85 74
147 142 138 139 139 136 133 128 125 111 109 104 99 100 104 110 105 103 102 103 102 98 100 99 101 102 101 99 100 100 100 97 95 96 87 84 76 69
146 143 140 138 133 125 120 114 110 104 99 96 91 85 91 93 91 92 90 94 93 93 94 93 96 96 96 96 95 96 98 94 90 86 82 75 71 68
138 128 123 119 112 109 104 100 96 93 88 88 85 83 82 83 82 84 84 87 87 88 88 90 90 87 89 91 91 95 96 92 86 80 76 73 71 70
115 112 110 109 105 100 95 91 81 80 79 79 76 75 76 76 78 77 77 79 80 84 85 83 85 83 82 83 87 87 86 83 78 75 71 72 71 69
105 100 99 96 94 91 87 83 77 75 72 69 69 71 70 76 76 77 77 74 72 75 78 78 81 78 79 77 78 78 75 73 71 71 71 71 70 68
94 92 90 87 86 84 80 77 78 75 74 70 63 62 67 69 69 68 68 67 66 69 72 70 74 73 72 69 73 70 69 67 67 70 70 70 69 70
90 90 88 83 80 78 74 69 67 68 69 64 59 56 57 62 64 61 60 56 58 64 67 67 67 67 69 66 70 66 67 66 67 66 68 69 67 70
83 84 84 79 74 72 67 62 60 61 63 61 58 55 50 51 52 52 54 51 51 56 62 58 59 61 61 62 63 57 59 60 64 64 68 69 69 70
73 74 74 71 68 65 59 55 54 55 59 57 57 53 49 46 46 46 46 45 47 49 51 48 51 50 48 47 47 49 54 57 62 65 68 71 72 69
66 66 67 66 63 60 54 50 48 50 53 53 52 50 45 41 40 40 40 39 41 41 41 40 39 40 41 46 48 49 53 55 56 61 66 68 68 68
64 62 63 62 60 56 49 47 45 44 44 45 45 40 37 35 35 35 34 34 34 33 33 33 35 35 38 40 41 43 47 49 56 62 63 70 70 72
62 59 57 56 53 50 44 44 42 40 39 39 36 32 32 30 28 28 28 27 27 27 28 30 30 31 31 34 36 40 45 48 51 54 60 67 70 72
58 54 51 49 46 43 41 39 36 35 33 32 32 33 30 29 26 24 23 22 24 27 27 26 26 28 31 33 35 38 41 44 48 53 58 63 67 72
53 49 46 42 39 37 36 34 32 29 27 26 27 27 27 25 23 20 19 20 23 22 22 24 27 28 29 31 33 36 42 48 54 59 63 70 73 75
46 43 40 36 34 31 30 28 24 25 25 23 23 23 21 19 17 17 17 17 17 20 22 23 24 28 31 35 40 44 50 54 59 63 66 68 72 76
39 36 33 29 26 25 24 21 20 20 21 20 18 16 14 14 15 14 13 15 17 19 21 25 28 31 37 41 45 49 53 56 59 60 63 66 69 70
31 29 26 23 19 17 17 17 16 15 15 13 11 11 11 11 12 12 12 14 17 20 23 27 31 35 38 43 48 50 52 53 56 61 65 68 68 70
25 23 20 17 14 11 11 12 12 11 10 10 11 10 10 11 11 12 16 17 20 25 28 29 33 37 39 42 46 50 54 58 60 61 61 62 60 57
20 17 14 12 9 7 7 9 9 9 10 9 9 8 9 10 13 17 20 22 26 28 29 32 35 39 40 43 49 52 54 56 56 53 50 49 45 40

GFSNE_250_spd_006.txt.gz
Wind_Speed
128 132 135 135 137 139 140 142 146 140 132 128 121 118 116 120 126 129 128 123 127 127 128 122 118 113 111 109 105 100 99 97 94 91 88 87 85 86
130 133 137 141 143 145 148 149 145 139 122 118 116 117 118 120 120 121 122 122 121 118 118 122 116 110 110 107 109 107 103 100 98 95 91 90 88 86
138 142 144 147 150 149 144 142 141 142 131 119 113 109 104 102 103 104 106 104 107 109 109 108 106 104 103 100 100 105 107 100 97 93 90 90 90 87
139 145 149 144 144 144 143 140 135 130 118 106 104 101 97 95 90 92 94 94 95 96 99 97 98 97 93 94 95 97 98 95 96 87 92 88 88 84
145 145 147 144 141 136 128 121 119 115 111 101 92 93 92 93 88 87 86 87 88 91 92 93 93 94 92 89 88 87 89 90 90 85 94 88 85 83
150 145 135 128 123 120 118 115 107 101 100 96 90 86 85 89 89 85 83 85 83 85 85 86 87 90 89 87 87 85 87 88 83 86 85 87 80 79
134 128 123 119 116 110 105 101 96 93 92 89 85 79 77 80 83 82 76 78 79 80 80 81 81 81 81 82 81 80 79 78 80 80 82 82 75 71
120 118 115 110 106 100 98 95 92 89 86 83 78 75 75 77 78 77 75 73 70 73 72 72 74 74 76 76 75 75 72 70 74 77 78 76 72 70
109 104 100 99 98 95 93 89 85 84 80 75 70 70 68 70 69 70 71 71 72 73 68 67 69 70 72 72 72 68 67 69 70 72 71 70 68 67
101 99 94 91 91 88 85 82 82 81 79 76 69 60 61 64 62 62 63 62 64 70 66 62 63 62 66 67 66 64 64 64 62 64 65 65 62 63
97 93 89 85 86 84 79 74 74 78 76 72 67 60 54 57 57 54 53 52 56 61 61 58 62 58 59 60 58 59 60 57 58 58 57 59 60 60
91 88 85 83 80 78 73 70 67 68 67 66 58 55 53 49 48 47 47 47 50 53 53 50 54 53 53 51 52 55 56 54 55 55 54 56 58 59
84 80 79 78 74 70 68 64 60 61 61 57 55 50 47 46 44 41 41 45 45 49 45 44 46 44 45 45 45 47 48 51 52 52 52 52 54 56
77 73 70 70 67 63 59 56 53 53 54 52 51 45 42 39 37 36 35 37 40 40 39 39 39 38 38 37 38 40 39 42 44 45 46 49 51 55
73 68 63 63 61 56 51 49 46 45 46 45 42 40 35 33 33 29 28 29 32 34 34 33 33 32 32 32 31 34 34 36 38 40 43 44 47 50
72 69 62 58 54 50 44 43 40 38 38 38 35 31 30 29 25 23 23 24 25 26 27 28 27 26 27 28 29 30 32 34 34 38 42 45 47 51
66 64 60 53 46 43 39 37 34 32 30 28 27 26 25 21 21 22 21 20 21 22 23 24 24 22 23 25 27 29 29 31 31 32 34 36 40 43
61 55 51 45 39 36 33 31 27 24 23 22 21 19 18 18 18 17 16 16 18 20 21 21 21 23 24 23 22 23 25 26 28 31 33 36 39 42
54 46 43 38 33 30 26 22 20 18 17 16 17 17 14 13 12 11 12 14 15 16 18 19 19 17 17 18 18 20 22 24 27 30 33 38 43 47
44 42 36 32 27 23 21 18 14 13 13 13 12 10 8 7 7 8 10 12 13 13 15 15 14 13 13 14 17 21 23 27 31 35 39 43 48 53
40 35 29 26 22 19 16 12 9 9 8 7 6 6 7 8 11 14 14 15 14 14 13 10 9 12 15 18 21 24 28 32 35 40 44 49 54 57
34 28 23 20 17 14 10 8 7 6 5 5 6 8 10 12 12 12 12 12 10 10 9 11 14 16 18 22 25 29 32 35 39 43 47 51 54 59
26 21 17 14 11 9 6 5 3 3 3 5 6 9 10 10 9 7 7 8 8 9 12 15 17 21 24 26 29 32 36 39 43 48 52 54 56 55

GFSNE_250_spd_009.txt.gz
Wind_Speed
116 119 122 127 133 140 144 145 152 145 133 131 132 135 134 134 133 130 131 130 128 128 131 132 131 126 118 120 119 120 109 107 108 97 96 97 99 97
120 124 131 137 141 146 150 154 151 146 133 130 126 119 118 113 110 110 109 108 107 110 110 112 111 110 107 104 104 102 103 100 102 97 94 96 95 93
126 133 138 144 147 152 152 150 147 142 125 108 108 105 102 100 100 98 99 101 99 97 99 100 100 100 101 98 96 93 93 91 92 90 90 95 91 88
134 140 144 150 149 148 146 136 125 122 116 100 99 97 93 92 90 91 90 90 90 91 90 91 90 90 89 85 85 84 85 84 83 82 83 90 89 79
142 144 143 145 144 136 124 117 115 108 102 91 82 88 83 82 80 81 82 80 80 81 82 84 84 84 82 78 77 78 77 74 78 78 78 83 84 80
141 143 144 138 127 119 116 109 101 98 95 89 81 77 76 79 76 76 74 74 76 77 76 76 75 72 72 73 73 73 73 72 73 75 75 79 79 82
145 139 133 123 117 112 104 99 95 91 87 82 74 71 71 71 72 72 66 69 71 72 71 71 67 62 64 65 68 69 69 67 65 68 72 76 77 78
138 125 120 117 110 105 100 95 91 86 83 79 76 74 71 69 67 65 64 62 62 70 63 66 60 58 60 60 60 61 61 59 60 62 64 69 73 74
123 118 114 108 102 97 94 92 92 91 85 77 72 71 66 65 59 60 59 57 57 64 58 63 59 57 56 56 55 53 53 53 53 55 60 62 69 73
119 113 105 99 95 93 91 88 88 89 85 78 68 62 61 60 55 55 55 52 54 58 55 58 55 53 51 51 50 49 49 51 54 54 55 59 62 67
112 106 99 93 91 89 86 81 79 78 74 66 61 57 52 51 51 49 47 48 51 50 48 52 49 47 45 43 44 44 45 48 49 51 54 57 59 62
103 99 94 90 88 83 77 70 69 67 62 57 50 49 48 45 44 43 43 43 44 41 40 45 45 42 42 41 39 37 42 46 47 47 50 51 54 57
98 93 87 85 82 77 70 63 59 57 52 49 45 42 41 40 38 38 37 35 35 34 34 40 42 40 39 33 32 35 40 42 42 44 45 49 50 52
92 85 80 77 73 69 64 58 51 47 45 42 40 37 35 33 31 30 29 29 28 29 30 36 35 33 33 30 31 34 35 34 35 39 42 46 49 51
88 81 75 70 66 63 56 49 45 43 40 37 33 29 27 25 24 22 23 25 25 25 26 28 28 29 28 26 27 27 28 30 32 36 38 45 46 48
83 77 69 65 60 55 50 42 40 37 33 28 25 22 19 18 17 18 19 19 20 20 21 22 23 23 23 23 24 25 25 28 31 32 34 38 41 44
74 66 61 58 53 46 40 37 36 33 27 22 18 15 13 13 14 15 16 18 18 19 20 19 20 20 21 21 21 22 23 24 26 30 34 37 39 41
67 59 54 49 43 38 34 34 32 26 21 16 13 11 9 9 11 13 14 16 16 17 17 17 18 18 19 20 20 21 23 24 25 27 29 33 36 41
59 52 47 41 36 30 29 29 26 20 15 12 8 8 7 9 10 12 14 13 13 12 14 16 16 17 17 18 19 18 20 22 24 26 29 30 32 35
50 46 39 35 29 25 25 25 21 15 12 8 6 5 6 8 10 11 10 9 9 10 12 13 13 15 16 17 19 20 21 24 25 27 29 31 33 36
45 38 33 28 23 22 21 19 14 11 9 7 5 3 6 8 7 6 6 6 7 9 10 11 13 16 18 18 20 20 21 22 24 25 27 29 30 33
37 31 27 22 18 17 15 13 11 9 8 6 4 4 5 5 6 7 8 9 9 11 13 13 14 17 19 18 18 20 23 26 27 28 30 32 34 37
29 25 20 16 14 14 12 10 7 7 6 5 6 5 5 6 7 8 9 10 11 14 15 18 19 21 22 23 24 24 25 27 29 32 34 38 40 43

GFSNE_250_spd_012.txt.gz
Wind_Speed
111 111 112 114 118 123 129 136 143 136 131 130 137 141 139 135 130 125 121 116 117 119 118 118 116 115 116 115 113 110 113 124 111 110 111 110 110 114
111 112 115 120 124 130 135 140 144 151 146 137 133 124 117 114 110 108 107 106 106 109 108 107 107 108 108 106 104 101 99 101 97 111 98 98 102 95
112 117 122 126 130 135 141 145 148 152 152 136 116 109 107 102 100 97 94 94 94 96 94 94 93 93 95 96 95 92 91 89 88 92 91 92 93 85
118 122 127 133 137 142 145 147 150 144 130 116 105 101 97 96 89 87 90 89 86 88 87 84 83 83 83 84 83 83 80 80 81 83 82 85 86 79
124 129 134 139 144 145 145 146 134 123 116 109 96 93 90 90 82 80 82 83 81 80 78 75 76 77 76 72 72 71 70 73 73 76 74 76 78 78
130 136 141 145 146 145 142 129 117 114 107 99 94 89 88 87 78 75 74 76 75 74 71 68 69 66 67 67 66 64 63 65 68 68 68 69 71 76
137 143 146 147 143 134 121 115 113 106 100 95 92 87 86 83 79 75 69 72 72 70 69 66 62 59 57 57 58 57 57 57 58 60 64 66 66 70
141 143 143 138 125 117 114 111 105 101 96 89 83 78 77 78 71 68 66 65 67 71 57 59 55 54 53 46 47 48 48 52 51 51 55 60 64 65
141 139 134 124 114 112 107 101 100 98 92 82 71 70 68 69 63 61 57 55 58 59 47 56 49 49 45 42 43 43 41 44 45 46 51 55 59 65
138 133 122 115 110 100 95 94 94 91 84 75 69 61 60 57 54 53 49 47 47 47 47 49 44 44 41 40 37 36 37 42 45 46 47 50 57 61
132 122 115 109 100 93 89 87 86 83 77 70 60 57 51 48 47 45 44 39 39 41 41 41 38 39 39 35 32 33 36 40 43 45 45 50 54 59
118 113 106 100 93 89 84 81 77 72 68 64 54 48 46 41 39 39 38 34 33 33 33 33 35 35 35 33 31 32 33 35 39 43 46 47 50 50
110 105 99 91 88 83 79 73 66 62 60 54 49 45 40 36 34 32 30 28 27 27 30 33 33 33 33 32 31 33 32 33 37 41 45 45 45 48
102 98 90 86 82 77 71 65 58 54 51 46 42 38 35 31 27 25 24 24 25 27 30 30 31 31 31 28 28 30 31 32 37 38 38 41 44 47
96 90 87 81 75 68 62 56 51 47 42 38 34 30 26 22 20 20 20 21 21 22 24 24 26 25 23 25 28 28 29 31 32 34 37 39 42 45
88 85 80 74 66 60 56 49 46 40 36 32 28 24 21 19 18 17 17 17 17 18 19 19 19 19 20 22 24 25 26 27 29 31 33 36 38 40
80 77 72 65 57 51 46 42 38 34 30 27 23 19 18 16 15 14 14 14 14 13 14 15 16 17 18 21 21 22 23 26 29 30 31 34 37 40
74 69 63 54 50 44 40 36 30 28 25 21 18 15 14 13 12 11 11 12 12 12 13 12 12 13 14 15 17 19 21 23 26 29 32 35 39 41
66 60 53 47 41 37 33 27 25 22 19 17 15 13 12 10 10 10 9 9 9 10 10 10 10 11 13 15 17 17 19 22 24 27 31 35 39 41
57 50 44 39 34 29 24 22 19 17 15 13 13 11 10 10 9 9 9 7 7 6 6 7 9 12 14 14 15 17 19 22 25 28 29 30 34 38
49 42 37 32 27 22 19 17 15 13 12 12 12 10 10 9 8 7 3 2 3 5 6 8 9 10 12 15 18 20 22 23 26 28 30 31 31 35
40 34 30 25 19 16 14 13 12 10 9 9 8 8 8 8 8 7 6 6 6 7 9 10 9 10 11 13 16 19 21 23 24 27 28 29 30 31
31 27 23 17 14 13 12 11 10 9 8 9 10 9 8 9 9 8 7 8 9 9 9 10 12 12 14 14 16 18 20 22 24 26 28 30 32 34

GFSNE_250_spd_015.txt.gz
Wind_Speed
100 103 105 112 110 111 115 120 128 126 119 121 128 135 139 141 142 142 139 134 127 119 117 115 113 109 107 106 105 104 102 100 104 108 113 108 110 109
104 108 109 107 110 116 122 126 132 139 136 131 134 137 136 131 124 119 115 110 106 105 105 104 102 99 95 94 96 96 95 96 96 100 101 100 95 100
108 103 106 113 118 122 127 132 136 141 145 134 135 133 124 113 107 104 102 99 96 95 95 95 95 95 91 88 87 86 85 85 86 88 94 98 98 92
102 107 114 118 123 128 132 136 140 142 143 136 123 113 107 103 97 92 89 89 88 91 90 86 86 88 85 83 81 80 78 76 76 77 82 86 92 97
110 115 120 125 129 133 137 139 141 141 137 124 107 102 96 95 89 88 86 86 86 85 81 79 79 80 80 75 74 72 70 68 70 69 71 76 82 90
117 122 126 131 136 139 140 143 140 132 121 110 102 94 89 89 87 84 84 83 81 78 73 72 73 72 72 70 68 67 63 62 63 63 64 67 73 81
124 128 133 138 141 141 141 134 125 115 109 100 93 87 84 83 83 82 76 73 74 69 61 67 61 63 66 63 62 60 58 57 57 58 59 61 67 75
131 135 138 142 142 138 128 119 112 106 100 92 86 80 79 81 78 73 68 65 66 57 54 62 48 55 56 54 54 52 51 52 53 57 59 59 62 67
137 139 141 141 134 122 114 106 102 101 95 86 78 76 72 73 69 66 60 55 54 51 49 46 42 45 42 43 44 47 48 49 51 53 55 57 59 63
141 142 137 127 117 110 101 97 95 93 89 83 76 71 65 63 59 56 53 49 44 42 39 35 36 36 38 39 40 41 43 45 46 48 52 55 58 62
142 135 123 114 106 99 93 87 86 86 82 78 71 64 59 54 49 49 45 41 37 36 33 29 28 29 30 32 34 37 40 42 43 46 49 51 55 59
130 119 114 104 97 92 86 81 79 78 74 71 64 56 51 47 46 42 38 35 32 32 29 25 25 26 26 29 32 35 38 41 44 47 48 50 53 53
114 109 103 96 90 85 82 77 74 69 66 60 55 50 46 43 41 38 33 29 27 27 24 22 22 23 25 28 29 32 35 39 41 41 42 45 49 52
104 99 93 88 82 79 75 72 66 62 57 52 47 42 40 38 35 31 27 23 21 18 17 17 17 19 21 24 25 28 32 35 36 37 39 42 45 49
96 91 85 80 77 75 70 64 59 54 48 44 39 36 33 31 27 24 21 19 17 15 13 13 14 16 17 18 20 25 27 30 32 32 35 38 44 48
89 84 80 76 71 67 62 57 51 46 41 37 33 30 27 25 22 19 16 14 12 11 10 10 12 15 17 19 22 24 25 27 30 32 33 37 43 47
79 76 73 69 65 59 53 47 42 38 35 31 27 23 21 19 17 15 14 11 10 8 7 6 8 10 14 15 16 20 23 24 26 28 31 35 40 43
74 71 67 61 55 51 45 41 36 32 27 24 20 18 16 15 14 12 10 10 9 8 8 8 9 10 12 13 15 18 23 26 28 29 31 34 36 40
69 66 60 53 48 42 38 33 29 25 22 19 17 15 13 12 11 11 10 9 8 6 5 4 6 9 10 12 15 17 20 23 26 29 33 37 39 39
63 57 51 46 39 34 30 26 24 21 17 16 14 12 10 10 9 9 8 6 5 4 2 4 5 7 10 12 14 17 19 21 23 26 29 32 36 40
55 49 43 36 31 27 24 22 19 17 15 13 11 10 8 7 7 7 5 5 3 1 1 3 4 5 7 10 12 13 18 19 21 23 26 30 33 36
47 41 34 29 26 22 20 18 16 16 15 14 13 13 11 8 6 4 4 5 3 2 3 2 5 6 6 5 6 9 12 17 20 22 24 26 27 31
38 32 27 24 20 19 17 17 17 16 17 18 17 17 16 14 11 10 9 6 5 6 7 6 8 8 10 11 11 11 13 14 16 20 25 27 30 31

GFSNE_250_spd_018.txt.gz
Wind_Speed
87 91 95 99 100 107 112 112 111 104 100 108 115 121 127 132 136 140 140 140 140 138 131 126 123 119 116 113 112 112 110 111 113 113 112 115 119 121
93 96 100 105 109 109 107 111 118 122 117 117 122 127 131 134 137 136 134 128 120 116 114 111 108 106 105 104 104 104 101 98 98 98 99 101 102 103
98 102 106 106 104 108 113 118 123 130 134 126 132 133 133 130 124 116 111 104 102 103 104 104 102 99 96 96 96 94 91 88 88 88 90 92 94 95
104 107 103 106 111 116 120 124 128 133 138 137 131 127 120 110 105 101 99 99 99 98 95 93 92 88 85 85 87 88 86 84 82 80 81 83 85 88
104 104 108 113 119 123 127 131 135 136 137 132 120 111 104 101 99 98 95 96 95 87 85 86 83 82 82 83 84 85 82 78 73 73 74 76 80 83
106 111 117 122 126 130 133 135 136 132 125 115 109 104 100 97 95 87 88 92 88 80 79 77 76 74 73 73 73 74 73 71 67 67 69 71 73 74
113 119 124 129 133 136 138 134 127 117 111 106 103 99 96 90 86 85 81 81 79 72 67 74 62 65 67 65 66 67 66 64 63 63 64 67 68 68
120 125 131 134 138 138 130 122 117 114 107 99 94 89 86 82 80 77 74 69 69 61 62 61 55 59 55 53 54 55 57 58 59 61 61 63 64 65
129 132 136 138 133 123 115 113 112 109 103 94 84 82 76 74 70 69 63 60 59 55 56 50 47 46 46 45 45 45 49 53 56 57 58 61 62 62
135 138 136 128 119 114 109 105 101 97 91 85 79 74 70 66 61 57 55 53 50 47 42 42 40 40 38 37 38 40 41 46 49 53 55 57 58 59
138 136 126 117 113 109 101 91 88 85 83 77 71 66 61 56 52 48 45 45 43 40 35 33 33 33 32 31 33 34 36 41 45 49 53 56 57 58
130 122 117 112 106 99 89 84 79 77 74 71 65 58 53 48 44 41 39 39 36 31 30 27 26 26 24 25 28 30 34 38 42 46 49 51 51 51
114 109 105 101 94 88 83 77 72 69 66 62 57 51 45 40 38 36 33 31 28 25 23 20 21 20 19 19 23 27 29 32 36 39 42 44 45 48
105 100 95 90 85 80 75 71 66 62 58 53 48 43 39 37 35 32 28 24 21 19 16 14 15 16 15 14 17 20 24 29 32 34 37 40 42 43
98 93 87 81 76 72 67 64 60 55 49 44 39 36 35 33 30 27 23 19 14 12 12 11 11 11 12 13 15 17 21 26 31 34 37 39 41 42
91 86 81 75 68 65 60 56 52 47 41 36 34 33 31 28 25 22 18 14 11 9 9 9 7 6 6 8 13 17 19 22 27 32 34 36 38 39
81 78 73 68 62 57 53 47 43 39 36 33 31 29 26 24 21 19 15 13 10 8 7 7 6 4 5 7 9 15 20 24 25 27 29 32 34 36
75 71 66 61 57 52 46 41 36 34 32 30 28 26 24 22 19 16 13 11 9 8 6 6 6 5 4 8 11 14 17 22 26 27 29 30 32 35
69 64 59 55 51 46 40 35 33 30 29 27 25 23 20 18 15 14 12 10 6 4 3 3 2 3 4 8 10 13 16 21 24 26 28 30 32 33
61 57 53 48 43 39 34 31 29 29 27 25 23 20 17 14 13 11 8 6 5 3 1 3 3 3 4 6 9 12 14 16 19 25 29 31 33 34
54 50 45 40 36 33 30 29 28 26 25 23 21 18 16 15 13 11 8 7 5 2 0 4 6 7 7 7 9 11 13 15 19 21 25 30 33 35
47 43 38 34 31 28 27 26 26 25 23 20 18 16 15 14 12 12 11 8 6 4 3 1 6 10 12 12 11 10 12 16 18 20 24 27 29 33
40 35 31 28 26 25 26 26 26 24 21 19 18 16 15 14 11 10 10 10 8 6 7 5 7 9 13 15 16 16 16 15 17 20 22 25 29 32

GFSNE_250_spd_021.txt.gz
Wind_Speed
89 92 95 98 98 99 99 100 102 95 95 101 104 109 113 117 124 130 133 136 138 141 144 143 143 143 140 138 136 132 130 129 127 125 125 126 128 129
95 97 98 99 100 101 104 106 108 108 100 105 109 114 119 125 131 136 140 141 141 141 137 134 131 128 124 120 118 116 114 113 111 110 110 108 109 110
98 96 97 101 105 107 108 109 112 117 118 112 122 126 130 133 135 136 132 127 122 121 117 115 115 113 110 106 105 102 101 100 100 100 100 97 97 99
96 99 104 105 106 107 110 113 119 124 130 131 128 130 131 127 121 113 110 110 108 106 103 102 99 95 93 92 93 93 93 93 91 91 90 89 89 88
101 101 102 104 108 112 118 122 127 131 133 136 130 121 113 109 104 104 101 100 97 94 92 88 85 83 85 85 84 85 84 84 81 81 81 80 80 81
99 102 107 111 116 120 125 129 131 133 132 125 114 104 102 101 98 94 91 93 87 86 82 81 80 80 77 76 78 78 78 77 76 74 75 75 76 76
104 109 114 119 124 128 131 131 131 123 116 107 101 99 97 93 90 87 83 81 85 78 76 77 71 69 69 68 68 69 69 68 67 67 67 68 71 73
110 115 121 126 130 133 132 124 117 112 104 98 96 91 87 85 81 78 75 74 75 68 70 66 63 62 60 58 57 59 60 60 57 58 59 61 65 70
118 122 127 132 133 127 118 113 109 108 104 95 86 84 79 76 74 73 68 64 63 62 62 57 55 52 52 51 50 51 51 50 48 49 51 55 61 66
124 130 132 130 122 114 106 103 103 100 94 88 81 76 74 70 65 62 59 58 58 54 54 49 50 46 44 44 42 42 42 40 40 41 46 51 57 61
130 133 127 116 110 106 101 96 93 88 84 78 73 69 65 61 57 54 52 51 51 46 46 42 40 37 34 34 33 31 31 31 32 34 39 42 44 49
130 123 115 108 104 99 93 86 82 78 74 71 66 59 55 51 49 47 45 42 42 38 37 35 32 27 24 25 25 24 23 23 25 27 29 33 37 44
119 111 105 101 94 89 83 77 72 70 67 62 56 51 47 45 42 38 36 35 32 31 29 26 23 19 18 18 18 17 16 17 17 19 23 28 35 43
109 104 97 91 86 80 74 69 65 61 57 53 48 45 42 39 36 33 31 28 27 25 23 20 16 13 13 12 14 11 11 13 14 16 18 24 32 38
103 95 88 82 78 71 66 62 58 53 48 44 41 37 35 34 31 30 29 25 21 20 18 14 11 7 7 8 11 10 12 12 15 17 20 23 24 28
92 87 81 75 70 65 59 54 49 44 40 36 33 31 31 30 28 27 25 21 17 16 13 10 8 4 4 7 9 12 13 14 15 17 19 22 25 29
82 78 73 67 61 56 51 45 40 36 32 30 30 29 28 28 27 25 22 18 14 11 10 7 4 2 4 8 9 11 14 15 15 16 20 22 27 30
75 71 65 59 54 48 42 36 32 29 27 26 26 26 26 25 24 21 19 16 11 9 7 5 3 1 3 8 12 14 15 17 18 19 21 24 27 29
68 63 57 52 45 40 34 30 27 26 25 25 24 23 23 21 21 20 18 13 11 7 5 4 2 3 5 7 11 14 16 17 21 23 24 25 25 28
61 55 50 43 37 32 29 27 27 25 24 23 23 21 20 19 17 17 16 11 10 8 5 3 3 4 7 8 11 13 16 18 21 24 25 25 28 29
53 48 42 36 31 29 27 26 26 26 25 24 22 21 19 18 17 15 15 12 10 5 4 4 2 4 7 9 10 13 15 18 20 22 22 24 26 27
45 39 34 30 28 27 27 27 26 25 24 23 23 22 20 18 16 16 14 13 11 8 4 2 4 6 8 11 12 12 15 16 18 20 22 22 23 25
36 32 29 28 27 27 26 25 22 20 22 23 22 22 21 21 20 17 15 13 10 10 7 4 2 6 10 12 13 14 14 17 18 20 22 24 25 25

GFSNE_250_spd_024.txt.gz
Wind_Speed
92 91 91 92 96 99 100 97 93 87 88 94 95 100 103 106 111 115 119 121 123 127 130 131 133 135 137 137 139 140 140 140 138 138 139 139 139 139
93 94 96 99 99 99 99 99 99 98 91 95 99 106 111 116 120 123 127 130 132 135 136 134 133 130 128 128 128 128 126 126 124 124 123 124 126 127
97 99 99 99 98 99 99 99 101 106 109 105 113 118 122 125 128 130 132 132 129 128 125 119 115 113 112 112 113 114 113 113 113 111 108 106 106 106
100 101 99 98 98 100 102 105 110 117 121 122 120 125 129 131 130 126 121 116 112 109 108 104 101 102 102 100 100 99 100 100 101 101 100 98 96 96
101 99 98 98 101 106 112 116 121 124 128 131 128 126 123 120 112 108 106 105 101 96 94 92 89 88 86 84 85 87 87 85 86 87 87 88 89 89
99 99 102 106 112 116 120 125 127 129 129 128 121 111 104 100 99 95 94 93 89 87 86 82 81 78 77 77 78 78 79 78 78 79 80 81 81 82
100 105 110 116 121 125 128 129 130 125 118 110 101 98 95 91 88 88 85 83 82 77 78 75 73 72 72 71 73 73 73 72 70 69 70 71 72 75
107 113 119 124 128 130 130 127 122 114 103 97 93 89 87 84 82 79 76 73 74 65 70 68 63 66 63 62 60 61 61 60 59 59 60 62 64 66
117 123 126 129 130 124 117 113 109 105 98 89 86 85 82 78 74 72 67 65 65 62 62 61 52 58 52 50 49 49 48 48 49 49 49 51 54 56
126 129 131 125 119 112 105 100 98 94 88 84 80 77 74 72 69 65 62 59 57 54 54 50 46 47 43 43 43 42 42 42 41 41 40 41 44 47
130 131 123 114 108 102 98 92 89 84 81 75 72 71 68 63 61 58 55 53 49 46 44 42 39 36 36 36 35 35 35 35 34 34 33 34 37 40
127 122 114 108 102 95 88 83 81 76 74 70 65 61 58 55 52 49 48 45 41 38 37 33 32 31 29 30 29 27 26 24 24 25 26 28 30 35
118 111 105 99 93 87 82 77 73 70 65 62 60 55 50 46 42 40 38 36 33 32 32 27 27 26 25 25 22 20 18 18 17 17 18 21 23 28
110 104 96 90 85 80 77 72 66 61 58 56 51 45 41 38 36 34 30 28 28 27 24 22 21 20 21 19 17 15 14 12 10 9 10 14 18 23
103 95 88 84 80 75 70 64 59 56 51 46 41 38 35 30 28 27 25 24 22 20 20 19 18 17 16 16 13 10 9 6 5 5 7 9 17 21
93 87 83 79 75 70 62 57 53 48 42 39 37 32 30 27 25 23 22 21 20 19 18 16 15 14 13 12 11 6 6 6 5 8 11 14 15 20
83 81 78 72 65 60 56 51 46 39 36 33 31 29 26 26 24 22 21 20 18 17 15 13 11 10 10 9 8 6 6 6 6 9 11 17 21 23
80 76 71 64 59 53 49 44 38 34 32 30 29 27 26 24 24 22 19 18 16 14 13 11 9 9 7 6 6 5 5 7 9 10 13 15 20 25
75 69 62 57 51 47 41 36 33 30 29 29 27 27 26 26 24 22 18 16 14 13 11 9 7 7 6 5 5 5 5 8 11 12 15 16 18 23
68 61 56 50 45 38 34 31 29 28 26 24 24 25 26 25 24 22 18 14 12 11 10 9 6 5 5 4 6 7 7 7 10 12 14 17 20 21
60 55 49 44 37 34 31 29 27 27 25 24 25 25 25 25 24 22 19 15 11 9 8 6 6 3 4 5 5 10 10 10 14 15 15 14 17 22
53 48 43 36 33 31 30 28 26 25 26 28 29 30 28 26 24 23 21 17 12 8 6 8 4 3 4 7 7 9 15 15 14 15 17 19 18 19
46 41 35 32 32 30 27 27 28 29 30 32 31 30 27 25 26 25 24 19 15 10 8 7 5 2 4 7 11 10 13 15 15 15 17 20 22 23

GFSNE_250_spd_027.txt.gz
Wind_Speed
103 107 110 109 100 99 100 102 101 90 83 89 93 96 98 102 106 109 111 113 117 120 122 123 125 127 126 126 126 126 126 126 127 130 130 132 133 133
110 114 109 101 102 104 104 100 99 97 86 90 94 100 106 110 114 118 119 122 123 124 125 126 129 130 129 129 130 134 133 132 130 129 129 130 131 132
116 107 104 105 106 103 102 102 101 105 106 101 109 115 118 120 122 124 123 124 123 124 123 121 121 118 116 117 115 114 115 116 115 115 114 114 114 114
108 106 108 106 102 102 101 103 108 116 122 121 118 122 124 128 126 122 118 114 109 106 107 106 105 104 105 105 104 103 103 104 105 105 105 105 104 104
108 108 104 102 101 103 108 114 120 125 129 130 125 124 119 115 108 105 103 101 98 95 96 94 92 93 93 93 92 92 91 91 91 93 93 94 93 93
107 102 101 102 108 113 119 123 127 131 130 124 118 110 105 102 99 94 92 90 86 85 82 82 83 81 79 78 80 81 80 81 80 81 82 82 82 83
101 101 107 112 118 123 127 130 133 128 117 108 104 100 96 92 88 86 81 81 79 73 76 76 72 72 71 71 74 73 73 73 73 73 72 73 74 76
102 108 115 121 125 129 132 132 127 113 101 96 95 92 91 83 82 77 74 71 72 64 68 69 63 65 62 62 62 64 64 62 61 62 63 63 64 66
112 118 122 128 130 130 125 121 112 106 98 92 90 87 84 78 75 72 68 64 60 60 63 57 56 55 54 53 54 54 51 52 52 53 54 55 56 58
121 127 129 130 128 121 113 108 104 99 93 87 82 79 74 71 67 64 62 58 51 50 54 50 46 43 44 47 45 42 44 43 43 45 46 47 48 50
127 131 131 124 117 110 104 100 95 90 84 78 74 71 66 63 61 60 56 52 47 42 42 41 40 37 38 37 36 38 36 36 37 37 37 38 39 41
130 128 122 116 109 103 97 91 87 83 78 73 66 62 60 56 52 50 49 47 42 41 36 35 34 33 31 31 30 31 30 28 28 29 31 33 33 35
124 118 113 106 101 95 89 83 78 75 70 64 60 56 52 49 46 43 42 42 40 34 35 31 27 26 27 26 25 24 23 22 22 23 25 27 29 31
115 109 102 99 93 87 82 76 72 66 60 57 54 50 46 42 39 38 38 37 34 32 29 25 23 23 23 22 21 20 18 17 17 18 20 22 24 25
107 101 96 89 84 80 74 68 62 58 54 50 46 43 40 37 34 34 33 32 32 29 25 22 21 20 20 20 19 16 14 13 11 12 15 16 17 18
98 94 87 82 78 74 69 61 56 52 47 43 40 37 35 34 33 30 30 27 26 25 22 20 19 18 18 18 17 13 10 10 7 7 8 10 12 15
90 83 79 75 70 65 59 55 51 45 42 40 37 37 36 33 31 28 27 27 26 22 19 17 16 15 15 16 14 9 6 6 3 1 3 6 11 17
81 77 74 69 64 57 54 49 45 42 40 39 38 37 34 31 28 26 24 24 22 19 15 13 13 12 13 13 11 6 4 3 1 6 7 9 11 19
75 72 68 62 56 53 49 44 42 40 40 38 36 35 33 32 29 26 20 21 21 17 14 11 10 10 12 11 8 5 4 2 4 10 9 13 12 20
72 67 62 55 52 47 43 41 40 39 36 36 35 34 34 33 32 30 21 16 18 16 13 11 9 9 10 8 6 3 4 4 7 11 13 13 17 18
65 60 55 51 46 43 42 40 40 38 40 39 37 35 35 37 35 28 23 16 14 15 12 8 6 6 7 5 2 2 5 7 9 11 15 16 17 21
58 52 49 45 41 40 38 37 37 39 39 40 40 38 35 30 28 24 20 17 12 12 11 7 5 2 3 3 1 3 7 9 11 13 15 18 20 21
50 48 43 40 38 35 35 38 41 41 39 37 35 30 26 24 19 19 19 17 12 9 8 6 3 1 2 1 3 7 10 12 11 16 15 18 20 22

GFSNE_250_spd_030.txt.gz
Wind_Speed
93 98 102 105 111 115 119 123 113 102 99 100 98 99 101 102 103 107 110 115 119 121 124 127 130 128 126 125 124 125 125 123 123 123 124 125 123 121
98 104 107 112 117 121 125 116 117 111 96 96 98 100 104 109 113 118 121 122 123 123 124 124 123 122 124 123 124 125 126 126 126 128 129 129 129 128
104 108 114 118 123 124 116 114 109 108 106 99 108 113 116 121 123 122 119 115 112 113 113 111 109 108 109 110 112 112 112 113 112 113 115 118 120 123
110 115 118 123 119 117 111 108 110 114 117 115 117 122 126 127 122 115 110 106 103 101 99 97 98 98 98 97 97 99 100 100 101 101 102 102 101 103
115 119 122 114 113 108 108 112 117 121 126 128 126 128 122 116 107 102 98 95 92 89 87 90 88 86 86 85 86 88 88 90 91 92 92 93 93 94
120 118 114 109 105 109 114 119 123 127 130 129 125 117 108 102 96 91 88 85 81 78 82 78 77 76 75 76 76 76 77 78 79 80 83 83 83 84
113 112 104 105 112 117 122 125 128 131 127 120 111 103 97 92 90 87 81 79 75 72 74 68 67 68 67 66 67 69 69 68 68 69 72 73 75 76
107 101 105 112 119 124 128 131 134 126 114 105 101 97 93 87 84 79 76 70 71 64 66 62 61 59 59 58 59 60 59 58 58 59 61 64 66 67
101 106 112 119 125 128 131 132 125 114 104 98 96 91 87 81 77 71 67 61 58 59 63 54 54 49 48 51 52 50 49 49 51 53 55 57 59 62
108 114 119 125 130 132 125 116 111 104 99 94 88 84 78 72 67 62 60 57 48 48 53 49 47 40 41 40 43 44 42 42 44 46 47 49 52 54
114 121 127 131 129 119 111 106 101 97 92 85 80 74 68 62 59 58 54 50 45 40 43 42 43 38 39 36 38 38 37 36 38 40 43 44 46 48
119 127 130 127 115 110 103 99 95 89 85 79 70 63 59 55 51 48 48 47 42 43 38 38 38 37 35 34 32 31 30 30 32 33 34 36 38 41
125 129 124 113 108 103 99 94 86 81 77 70 63 58 52 49 46 44 43 44 43 38 37 35 33 31 31 28 26 25 24 25 25 27 29 29 30 32
127 122 112 108 103 97 93 85 79 73 66 61 56 51 48 45 42 41 41 41 39 37 36 32 30 28 26 23 22 20 20 19 20 22 23 24 25 26
120 112 106 100 95 89 82 77 71 65 59 54 50 48 45 44 42 39 38 38 37 34 31 30 29 24 20 19 17 16 17 16 16 17 18 19 20 20
110 103 96 91 84 79 76 70 63 58 53 49 46 45 44 43 40 36 34 33 30 28 27 26 25 20 16 15 15 14 15 12 12 14 15 14 16 16
95 91 86 80 75 70 64 60 56 51 48 46 45 45 42 39 37 33 29 30 31 24 23 23 20 16 13 12 11 12 11 9 10 12 12 8 8 8
88 83 77 73 69 63 57 51 47 46 45 45 43 42 41 38 34 30 30 28 28 24 21 19 17 12 10 9 7 9 6 7 7 7 4 4 2 3
80 74 70 66 60 55 50 47 45 44 43 42 40 40 38 38 37 33 31 28 25 23 18 16 13 9 6 7 5 6 4 6 5 2 4 6 6 8
72 69 64 59 53 48 44 44 43 43 43 43 44 43 40 39 34 32 30 25 19 20 15 13 10 7 5 5 5 4 5 7 6 7 10 10 8 13
67 62 57 51 45 42 43 43 45 44 45 44 41 38 33 29 25 21 21 17 14 16 12 9 5 4 4 6 5 5 6 8 10 12 14 15 12 16
61 55 48 43 40 40 40 41 43 44 44 43 39 33 25 22 20 18 17 13 11 12 10 7 3 1 4 6 6 8 9 9 12 15 18 17 18 20
53 47 41 39 37 37 38 40 42 41 40 37 32 26 24 22 18 15 15 14 11 11 9 6 4 4 6 6 8 10 12 11 13 18 20 22 22 22

GFSNE_250_spd_033.txt.gz
Wind_Speed
83 87 90 92 95 97 99 102 103 103 108 119 119 115 118 113 110 109 110 113 117 121 124 126 127 129 129 128 128 129 128 126 125 124 124 124 123 118
88 92 95 96 100 103 106 111 116 118 115 112 112 111 109 111 113 116 121 123 126 125 121 117 113 112 116 119 120 118 117 118 118 118 120 122 123 122
94 96 99 101 105 109 114 119 123 120 112 102 107 111 114 118 122 126 125 121 117 114 108 104 103 105 102 102 103 103 104 104 104 104 106 107 109 111
97 99 102 106 111 116 120 122 115 114 110 107 111 117 122 128 131 126 116 111 102 99 97 97 98 95 94 94 95 95 95 94 95 95 95 95 96 98
100 103 107 112 117 121 117 112 106 110 117 120 119 124 127 129 120 113 104 98 94 90 88 89 86 84 84 84 85 84 84 85 85 85 85 86 87 88
105 109 114 119 118 111 105 105 112 118 123 125 127 129 122 114 106 98 93 89 84 82 83 81 76 75 73 74 75 76 76 75 74 73 74 75 76 79
111 116 118 112 106 102 107 113 120 126 127 128 128 117 109 101 94 89 84 82 77 74 78 71 69 68 65 65 66 69 70 67 65 64 66 67 69 71
116 113 107 99 104 109 116 123 129 131 131 122 112 102 96 91 89 84 80 75 74 65 72 63 64 59 60 58 57 57 59 61 59 56 57 60 62 64
108 102 100 105 111 117 123 130 134 133 119 109 100 93 91 85 83 81 75 69 63 60 63 59 56 51 50 47 48 50 52 51 49 49 50 52 55 57
97 101 106 112 120 124 127 131 127 116 107 100 94 90 83 80 76 73 68 65 55 48 51 50 50 43 45 42 41 41 42 43 43 43 45 47 48 50
102 108 116 122 127 128 128 117 110 104 98 93 88 82 78 71 67 65 60 54 51 43 45 44 44 38 41 38 36 35 34 36 38 39 40 42 43 44
109 118 124 128 129 127 112 104 101 98 93 87 81 75 69 63 57 54 51 50 47 44 42 40 38 39 31 34 32 32 32 33 33 35 36 37 38 41
116 124 127 129 122 108 102 99 95 91 85 80 74 68 62 55 48 45 44 44 47 38 40 40 37 34 33 29 30 28 29 29 30 31 32 33 34 35
123 128 129 117 105 102 98 94 88 81 77 70 66 61 55 49 44 41 42 40 41 39 36 35 34 31 29 28 27 25 25 25 25 26 27 28 28 29
129 130 114 104 101 97 90 84 79 72 67 63 59 52 49 47 45 38 35 35 36 35 32 32 31 29 27 26 24 21 20 22 21 21 23 24 22 22
127 114 104 99 94 87 81 76 70 65 61 58 53 48 46 40 39 36 31 28 28 32 33 28 27 24 23 23 18 16 18 17 18 18 18 16 16 17
108 99 95 89 81 77 71 65 63 58 55 51 49 45 42 40 40 41 37 29 29 27 30 27 23 19 20 18 14 14 15 14 15 14 14 16 15 13
96 91 85 78 75 70 64 58 53 50 48 47 44 43 44 44 41 38 38 35 28 30 28 24 20 14 17 13 11 11 11 11 11 11 13 12 9 6
88 81 76 72 67 61 57 52 50 47 45 44 46 47 46 43 39 35 31 31 28 26 24 20 17 11 13 11 7 7 7 8 8 8 8 5 5 4
77 72 69 63 58 53 49 47 46 45 47 49 49 48 43 38 31 28 26 24 20 21 19 15 13 8 9 8 4 4 4 5 6 4 3 5 6 5
70 65 60 55 50 47 44 43 46 49 51 50 45 40 34 29 24 23 21 23 18 18 15 11 8 5 5 4 2 2 2 4 4 3 6 8 8 10
63 58 54 49 45 40 40 44 48 48 45 42 39 34 26 21 20 22 20 21 18 15 12 9 6 4 5 4 4 4 5 4 4 7 10 11 8 15
54 51 46 42 38 39 43 46 46 43 40 36 33 29 22 18 16 16 16 14 14 13 9 7 7 7 7 6 8 9 8 7 7 11 14 14 13 18

GFSNE_250_spd_036.txt.gz
Wind_Speed
71 75 78 81 85 88 92 95 94 92 97 105 109 112 117 122 124 121 119 119 113 115 117 122 126 128 130 132 128 125 123 122 120 119 119 118 116 116
77 81 84 88 91 94 97 100 102 101 101 110 114 120 120 118 118 113 111 116 120 123 127 127 125 124 121 117 115 112 110 109 108 109 109 110 109 109
81 86 90 93 96 99 102 104 107 111 111 116 119 115 116 112 113 116 122 127 129 128 124 115 112 109 103 101 100 100 99 98 97 96 97 97 98 98
87 90 93 96 99 103 106 110 113 118 120 112 112 108 112 118 120 127 131 132 125 116 109 105 104 96 95 93 92 92 92 91 90 90 90 89 89 90
90 94 97 100 104 107 111 116 121 120 117 112 105 113 118 125 130 133 130 119 110 103 97 96 92 86 87 85 85 83 82 81 81 80 80 80 81 82
94 97 100 103 108 112 118 119 115 112 109 113 115 118 125 133 134 122 113 105 98 90 89 89 79 80 76 75 76 75 74 72 70 70 70 69 70 73
97 100 105 109 114 119 115 112 106 112 118 120 124 129 134 129 117 107 97 91 89 75 84 83 70 75 68 68 65 67 67 66 65 63 62 63 63 67
101 107 111 115 119 114 107 109 116 121 124 126 131 132 120 111 102 96 88 84 80 70 75 75 65 65 63 61 59 58 58 58 59 60 58 55 56 58
108 112 116 116 112 105 108 116 123 128 131 133 128 115 107 100 94 90 83 80 74 68 69 63 58 55 56 56 54 52 52 52 53 54 55 52 50 51
113 118 113 108 104 110 116 123 128 133 135 125 112 103 97 91 85 82 78 74 67 58 56 55 52 50 51 53 50 49 47 47 47 47 47 47 46 46
116 111 105 105 113 119 123 127 133 134 120 108 101 95 89 84 80 75 69 64 62 55 48 47 45 48 45 48 45 46 44 41 42 42 40 39 39 40
107 101 105 112 120 126 129 132 129 113 105 100 93 86 81 77 71 66 62 58 54 58 43 45 40 44 39 42 40 40 39 39 36 36 35 35 36 38
99 105 113 119 125 129 132 123 109 103 99 92 86 80 73 68 62 55 50 50 51 53 46 42 36 35 41 35 33 36 36 34 30 32 34 34 35 36
105 113 120 125 129 132 118 108 102 97 89 84 78 72 65 58 53 49 44 43 38 46 46 36 37 34 38 38 35 32 28 32 31 27 31 33 34 33
114 122 127 130 129 113 105 99 94 86 81 75 70 63 58 53 49 45 37 38 35 39 45 40 37 35 37 35 31 28 31 23 28 29 30 29 29 30
121 126 129 122 110 103 97 90 84 79 74 70 64 58 54 50 44 44 41 39 37 35 42 43 36 35 34 32 31 25 26 29 23 24 26 25 24 24
123 124 113 104 99 93 86 79 74 69 65 60 58 55 52 51 49 49 46 43 41 37 34 39 36 34 32 25 25 27 24 24 23 23 22 20 19 19
117 107 98 94 88 83 77 70 64 61 56 53 52 54 55 54 50 46 43 41 39 36 33 30 32 28 25 24 20 20 22 20 19 21 17 16 17 17
100 94 89 84 78 73 68 63 58 53 51 51 54 57 54 50 46 41 38 36 34 32 27 25 23 22 19 19 18 18 18 18 17 15 14 17 13 10
89 84 78 74 70 64 59 54 51 51 52 55 57 54 49 45 39 36 34 30 29 27 22 20 16 14 14 13 13 14 14 13 11 11 14 11 7 5
79 74 71 67 61 55 50 48 50 52 55 55 51 46 41 36 32 28 29 28 26 22 19 16 12 11 10 9 10 11 11 9 9 10 9 5 7 2
69 67 64 59 54 49 45 47 52 55 55 49 44 39 34 28 24 24 24 23 19 15 14 11 9 8 6 7 6 6 6 5 7 7 5 8 9 6
62 60 56 52 49 45 44 48 52 51 48 45 41 35 28 20 18 20 19 16 11 9 8 7 6 5 4 3 2 2 2 6 5 7 9 10 12 11

GFSNE_250_spd_039.txt.gz
Wind_Speed
71 73 73 75 77 79 82 85 86 86 91 99 101 103 103 106 111 115 119 122 123 122 118 110 109 112 119 126 130 131 131 128 126 124 121 120 117 114
75 76 77 79 81 83 86 89 92 93 93 98 102 104 108 112 118 122 120 117 114 109 114 117 120 125 129 129 129 124 115 110 108 106 105 104 104 103
77 79 82 83 85 88 91 93 95 97 96 102 107 112 116 120 120 118 113 110 115 121 125 127 127 125 115 108 105 103 103 99 94 91 89 90 90 90
79 82 84 86 88 91 94 97 99 102 103 106 113 119 122 120 117 109 115 120 125 130 130 123 116 108 102 97 96 95 92 91 87 84 83 82 83 83
82 85 87 89 92 95 98 101 104 107 112 114 118 121 119 117 113 117 123 129 133 125 116 107 106 99 95 91 88 85 83 81 81 78 78 77 76 76
84 87 90 92 96 99 102 105 109 113 118 122 119 118 114 115 120 125 131 133 124 107 102 102 95 88 85 81 81 78 75 74 71 70 68 67 67 69
87 90 93 97 100 104 107 111 116 121 125 121 119 113 116 121 127 132 128 114 110 94 90 93 80 79 77 75 73 70 69 66 64 61 59 57 56 58
89 93 98 101 104 107 112 116 123 125 123 119 114 118 123 129 132 125 110 103 98 86 79 84 71 70 68 67 66 64 61 60 58 57 56 54 52 51
93 98 101 105 108 111 117 122 123 123 119 118 120 127 131 131 115 108 100 93 84 77 72 77 63 62 60 60 58 58 57 55 54 53 51 51 51 50
97 101 105 108 113 118 121 121 118 119 122 124 130 132 123 108 103 97 88 85 79 68 62 68 56 55 53 53 55 54 52 51 49 47 46 46 46 46
101 105 109 113 119 121 117 115 119 123 127 131 130 117 107 99 91 86 82 74 73 64 51 54 47 50 49 47 51 49 47 45 45 43 43 43 43 43
105 111 115 118 117 113 115 120 121 127 131 129 111 104 94 87 82 75 70 65 63 63 49 51 42 37 49 35 44 45 43 38 41 39 39 40 39 40
111 115 117 111 110 116 120 124 128 132 126 109 101 92 84 78 71 65 58 54 55 55 51 49 49 39 41 45 36 40 41 36 36 36 36 36 37 36
113 109 105 111 117 121 125 129 132 118 105 97 88 82 76 69 62 57 49 46 44 48 52 49 53 47 46 46 42 33 35 33 33 35 33 31 30 33
101 105 112 117 122 126 129 125 109 101 93 85 81 75 68 61 56 54 49 49 48 48 51 53 54 50 46 46 43 37 36 26 27 29 28 32 32 31
106 113 118 122 125 127 115 103 95 87 82 79 74 68 62 57 53 55 56 53 49 44 42 49 50 44 40 40 38 32 31 29 26 22 24 27 27 27
113 118 122 125 120 106 97 90 82 78 75 69 64 61 56 57 58 59 55 49 45 43 35 38 41 34 33 32 30 29 26 23 23 25 26 24 24 25
117 121 121 109 99 93 86 78 73 70 66 63 59 57 57 60 59 54 49 44 41 36 33 30 25 27 26 22 20 21 23 22 21 22 22 23 22 21
118 109 100 94 89 83 76 71 67 62 60 58 58 60 60 55 50 48 42 39 36 31 27 24 22 21 17 16 15 15 15 16 18 18 20 20 18 18
97 92 87 83 77 72 68 63 59 56 56 58 59 58 53 48 43 40 38 34 31 25 22 20 16 15 12 11 12 13 12 14 15 16 15 15 13 14
87 82 77 72 68 65 60 56 53 55 58 58 56 51 47 42 34 34 32 29 23 19 17 13 11 9 8 7 8 9 10 12 12 11 11 11 10 7
76 71 67 64 61 57 53 52 54 57 55 53 49 46 41 35 31 28 25 21 16 13 9 6 5 5 4 4 6 6 8 9 10 10 10 9 9 6
65 62 59 56 53 51 48 52 54 52 50 45 41 36 34 30 26 21 17 12 9 6 2 1 1 2 3 4 6 8 9 10 9 10 12 11 9 8

GFSNE_250_spd_042.txt.gz
Wind_Speed
73 73 74 74 75 76 77 78 78 78 81 89 90 94 96 98 100 102 105 108 111 115 119 121 124 119 115 104 108 112 117 121 122 123 123 121 120 119
76 76 77 77 78 80 81 83 85 84 83 89 93 96 99 102 104 107 111 113 118 122 125 123 120 109 107 111 117 123 126 125 123 118 113 109 106 105
77 78 79 80 81 83 85 87 88 90 89 92 96 99 101 105 109 113 116 119 124 126 123 114 111 114 118 120 121 121 117 111 106 101 97 94 94 94
82 82 82 84 85 86 87 89 92 95 96 96 100 103 107 111 114 117 121 126 125 119 114 119 121 123 119 117 109 102 102 98 95 90 87 84 82 82
82 83 84 85 87 89 90 93 96 99 101 101 103 109 113 118 119 123 124 121 115 118 120 126 123 117 108 100 98 94 91 88 84 83 79 77 76 75
82 83 85 86 87 90 93 96 99 101 103 107 109 114 119 123 125 123 118 118 124 124 119 121 109 102 97 92 90 86 83 79 77 74 71 69 69 68
81 83 85 86 89 92 94 98 101 104 107 111 115 119 124 126 124 117 121 124 127 115 109 108 97 92 84 83 81 78 73 71 68 65 63 62 61 62
81 83 85 87 90 93 96 100 104 108 112 116 119 122 124 118 116 122 127 128 125 100 93 96 85 83 77 73 70 68 64 61 59 57 56 55 55 55
79 82 85 88 91 95 99 104 110 116 121 122 122 119 112 119 123 127 129 120 106 95 82 88 78 71 65 63 61 61 56 55 54 52 52 52 53 51
78 82 86 91 95 99 103 109 115 121 125 126 118 115 121 125 126 125 113 106 99 85 71 72 70 65 59 53 52 54 50 51 51 49 49 49 49 49
79 85 90 94 99 104 108 114 120 125 123 117 120 123 125 124 115 104 100 90 86 82 63 62 61 56 58 50 46 48 46 45 44 43 44 44 44 44
85 91 96 100 105 110 115 118 120 115 117 122 127 126 121 108 101 91 82 78 72 72 57 57 53 47 56 47 40 44 45 45 44 42 41 42 42 40
91 97 102 107 112 115 117 113 113 117 123 126 127 116 104 98 88 81 73 64 61 60 55 56 58 55 52 57 44 43 47 46 43 40 39 41 40 37
98 103 106 109 110 111 112 115 120 124 125 119 106 101 92 84 79 73 63 57 52 54 59 58 61 58 54 52 51 43 43 44 41 37 38 37 35 34
102 104 103 104 108 113 116 121 123 120 107 100 92 85 80 76 69 64 57 54 53 55 57 55 55 51 45 45 43 35 37 36 34 33 35 31 32 29
98 99 103 109 114 117 122 122 111 99 92 85 80 77 72 67 61 58 60 59 57 53 47 47 46 41 35 35 34 28 31 24 29 27 28 26 29 29
98 103 110 115 117 120 112 100 92 85 78 75 70 66 63 62 62 62 60 56 51 48 39 34 38 30 24 23 24 21 22 20 20 20 22 20 21 23
104 110 115 116 114 103 94 87 79 75 71 65 61 58 61 62 60 55 51 47 44 38 33 27 22 22 19 18 19 15 13 12 16 16 16 16 17 19
110 112 111 103 94 89 83 76 73 68 63 59 58 60 58 55 51 45 40 36 33 27 23 19 18 15 14 14 11 10 12 11 11 13 14 15 15 16
108 101 93 87 83 77 72 68 64 59 57 59 60 57 54 50 44 36 31 26 23 20 18 15 13 10 9 7 5 5 6 7 9 10 12 12 13 15
91 85 80 76 69 66 62 58 56 55 58 57 53 50 47 42 36 29 23 20 19 16 13 10 6 5 4 3 5 6 7 8 9 10 10 11 11 12
75 72 69 63 61 57 53 52 52 55 53 50 47 42 37 33 29 25 20 16 13 11 8 5 4 3 3 5 6 7 8 7 7 7 7 7 6 5
66 60 55 54 50 48 48 49 52 50 47 44 39 34 30 27 23 19 15 13 11 8 8 8 8 8 7 7 8 9 7 6 6 5 4 2 4 5

GFSNE_250_spd_045.txt.gz
Wind_Speed
70 74 78 79 80 80 80 81 80 78 80 87 88 90 90 90 92 93 94 96 98 101 103 104 107 107 109 112 115 120 124 126 119 110 111 112 111 110
72 76 77 80 81 81 82 83 83 83 81 87 90 92 94 96 98 99 100 102 105 108 110 112 112 114 116 120 123 126 120 114 116 118 121 121 122 120
67 72 76 81 84 85 85 86 88 88 87 89 92 95 98 100 102 104 105 108 112 114 115 116 118 120 124 126 121 115 119 121 124 125 123 121 117 113
68 70 74 78 81 85 88 89 91 92 93 92 95 97 100 101 103 105 109 112 113 116 118 120 124 127 125 115 118 120 121 122 120 114 108 101 98 97
68 71 74 77 81 83 84 87 89 92 94 94 95 98 100 104 105 107 108 112 115 118 121 126 127 118 121 119 117 116 109 104 102 95 89 87 84 82
72 73 75 76 77 79 83 87 88 91 94 94 95 98 101 104 105 106 109 116 121 124 128 120 119 120 121 115 107 98 96 93 87 84 81 78 75 73
75 75 75 73 72 74 77 81 87 91 93 95 96 99 103 105 108 112 115 120 128 120 117 121 120 117 109 97 93 90 87 84 79 76 71 68 64 64
75 73 69 67 68 71 75 80 85 90 93 95 98 101 105 109 112 116 120 114 115 126 120 118 108 105 96 89 80 80 80 75 69 66 63 59 56 56
71 67 67 68 70 74 79 83 89 95 98 100 103 108 109 115 117 111 111 117 121 120 111 102 98 97 85 81 72 68 68 66 60 58 57 53 50 50
67 67 69 72 76 80 84 90 96 102 105 109 112 114 114 109 109 114 117 116 115 107 93 90 89 85 79 74 60 54 57 59 54 52 51 49 46 44
69 72 75 78 83 89 92 97 102 107 111 113 111 106 108 112 114 113 111 103 99 96 85 78 77 72 70 70 53 45 48 55 56 52 48 46 44 42
77 81 84 88 93 97 99 102 106 109 109 108 109 112 114 113 109 101 95 91 86 83 76 72 64 57 63 64 49 45 54 57 60 57 52 51 48 44
84 89 93 96 99 101 103 104 105 106 108 111 115 115 114 106 98 93 84 77 75 70 63 61 61 55 54 65 54 49 52 54 58 52 51 50 48 44
90 93 96 98 99 101 103 106 107 109 113 114 113 108 100 94 86 82 77 70 63 58 59 57 59 59 58 55 57 46 46 49 48 44 44 44 42 42
90 91 92 95 99 103 106 109 112 114 113 109 100 94 86 80 75 71 68 63 61 58 58 57 55 52 47 44 44 39 42 40 42 39 38 37 37 38
87 90 93 99 104 109 112 114 114 110 100 93 87 80 76 71 65 63 66 64 58 51 45 49 47 42 35 34 36 33 35 33 36 34 32 30 30 35
93 98 103 108 110 113 112 106 98 92 86 77 72 69 65 63 62 60 57 54 47 43 35 35 36 30 26 26 27 26 26 25 26 26 24 21 26 30
101 105 108 110 108 101 94 89 83 77 70 67 62 59 61 60 57 52 45 41 36 32 28 25 24 24 20 21 21 20 18 17 16 15 17 18 24 27
104 104 101 93 88 85 79 74 69 63 60 57 56 59 58 54 48 43 37 32 29 25 22 19 18 17 17 17 14 11 10 9 12 15 19 19 21 22
94 87 82 78 75 69 63 60 59 54 52 54 55 53 50 47 42 37 31 26 22 19 17 15 13 12 10 8 6 6 8 9 11 11 13 14 16 17
78 73 68 64 58 55 54 53 49 48 51 51 48 46 41 38 34 30 26 21 18 15 12 10 7 6 4 3 3 5 7 8 9 10 11 10 10 12
63 59 54 51 49 48 47 44 44 46 47 43 41 38 34 31 29 26 22 18 14 10 8 8 7 6 4 2 3 6 7 7 8 9 9 9 11 14
52 48 46 44 42 41 39 41 43 44 41 38 36 33 28 26 23 20 16 13 10 9 9 8 8 7 5 5 7 8 9 9 9 10 10 11 11 11

GFSNE_250_spd_048.txt.gz
Wind_Speed
73 70 69 69 69 69 71 71 72 73 75 83 88 92 93 93 93 92 92 92 93 94 96 99 101 102 103 104 104 105 106 108 110 111 111 112 114 117
74 71 69 69 71 70 70 72 72 73 74 79 85 89 92 94 96 96 96 95 97 99 101 102 103 104 104 106 107 108 110 111 111 113 115 118 121 123
73 70 70 71 70 71 70 71 73 74 75 79 81 84 87 90 93 95 97 97 99 101 102 103 104 105 105 106 107 108 110 112 115 118 121 125 128 123
72 71 72 71 72 73 72 75 78 79 79 79 80 81 82 85 89 92 95 98 101 103 104 105 105 106 107 107 108 111 114 117 122 128 126 118 118 123
71 70 72 72 74 76 79 80 81 81 80 76 74 75 77 81 84 87 91 97 101 104 105 105 105 106 108 111 114 117 122 123 119 122 123 121 116 111
72 72 71 74 78 81 82 82 80 76 74 72 72 73 77 82 85 87 91 98 101 105 106 107 110 113 116 120 119 116 115 116 120 122 114 104 99 94
74 70 75 78 83 85 83 79 75 77 77 77 79 82 85 88 91 95 97 100 106 109 112 114 118 112 111 113 114 115 112 106 103 104 99 90 85 82
68 71 76 83 84 80 78 78 80 82 85 86 88 90 93 96 99 101 101 104 108 114 105 103 110 112 115 114 109 100 92 88 88 89 87 77 76 72
74 78 82 81 79 79 82 84 88 93 94 95 96 98 99 101 101 102 101 98 102 107 106 105 110 109 105 100 94 83 75 73 76 79 78 70 65 62
72 75 78 79 81 86 89 92 96 99 101 102 103 103 101 100 98 97 100 103 107 109 106 96 96 96 94 91 80 71 66 65 66 69 70 64 57 54
73 77 81 86 88 92 94 97 100 102 102 101 100 101 101 102 102 102 102 100 100 98 95 84 84 80 83 83 75 62 57 56 58 62 64 59 53 51
75 80 85 87 90 92 93 94 95 97 100 104 106 107 108 107 105 99 93 90 87 84 83 78 77 68 71 72 64 53 51 54 58 60 61 56 54 55
84 86 87 90 91 92 92 95 100 104 108 112 114 113 111 106 98 92 85 78 76 74 71 67 70 65 61 69 64 53 52 58 61 61 61 57 55 55
85 86 86 87 90 95 99 103 107 111 115 116 112 106 100 95 89 82 75 71 67 61 66 65 66 63 62 62 61 50 48 52 55 55 52 48 46 47
78 82 86 92 96 101 106 110 112 113 110 105 98 94 89 83 75 72 68 65 67 61 59 61 59 55 53 52 50 45 45 42 46 44 44 43 40 42
85 89 94 98 103 107 108 106 103 98 93 90 87 82 76 72 68 65 66 64 60 54 49 51 46 43 40 41 41 37 37 36 36 33 32 33 34 36
93 98 102 103 101 99 96 92 88 85 81 75 70 67 64 63 62 61 58 52 47 43 40 39 35 34 34 32 30 28 27 27 27 26 26 27 29 30
98 99 96 91 86 83 81 77 74 70 64 62 59 57 58 59 57 53 48 45 41 36 32 30 28 27 25 22 21 21 22 23 23 20 17 19 22 22
91 85 79 76 73 69 66 63 59 55 54 52 52 54 53 52 49 45 42 37 33 29 25 23 22 20 18 17 17 16 15 16 15 15 15 15 17 20
75 72 67 62 60 57 54 53 50 47 45 47 49 48 46 46 44 40 36 32 29 25 22 19 16 14 12 11 11 10 10 11 12 14 16 17 19 21
65 59 55 53 51 49 47 44 42 42 44 46 45 42 40 40 36 33 29 26 25 22 18 15 12 11 11 11 11 11 12 13 13 14 15 17 19 21
55 52 49 46 44 41 38 37 38 41 43 41 39 36 35 32 29 26 24 22 20 18 16 14 14 13 12 11 10 11 11 11 11 9 8 10 12 14
50 47 44 41 37 35 34 35 38 41 39 38 34 31 30 27 25 22 19 17 17 17 15 14 14 14 13 13 12 11 12 10 10 11 11 12 13 13

GFSNE_250_spd_051.txt.gz
Wind_Speed
78 78 78 81 83 82 81 76 76 73 72 78 77 76 75 77 80 82 85 87 87 87 88 90 91 92 94 97 98 99 97 96 97 98 100 103 104 105
74 75 77 80 85 85 81 79 79 77 75 74 76 78 80 83 86 86 88 88 88 89 89 89 90 90 91 92 94 97 98 98 98 99 101 102 103 105
73 74 79 82 85 83 79 79 81 77 77 75 77 82 83 87 89 89 89 88 88 89 88 88 87 87 88 89 90 92 95 98 101 103 103 105 105 106
72 78 80 84 83 79 78 82 81 83 79 80 83 85 85 85 82 82 83 84 84 85 85 85 86 87 87 89 91 93 97 100 103 105 105 104 106 108
70 66 80 80 80 80 82 82 81 80 84 84 87 83 81 82 80 80 82 85 88 90 90 90 91 92 93 95 95 100 102 103 104 106 108 111 113 115
70 71 75 76 80 82 84 83 85 87 88 85 81 81 83 87 89 90 93 98 98 100 99 96 99 99 102 102 104 106 109 110 110 112 113 116 117 116
69 68 72 77 81 82 82 86 87 86 86 85 86 89 93 95 99 101 101 101 103 103 101 100 97 98 100 103 105 107 108 108 107 108 110 113 115 116
67 73 76 78 83 84 84 85 84 86 89 91 95 96 98 101 101 101 100 97 94 101 99 103 102 105 108 110 111 109 106 106 105 105 105 104 102 100
70 73 77 80 80 84 84 84 87 92 95 97 98 100 101 101 100 101 103 101 104 107 104 104 104 105 105 106 104 98 92 87 83 84 85 88 88 86
71 74 79 81 82 80 83 87 92 96 100 103 102 101 102 104 106 106 106 105 106 103 102 94 90 92 94 96 92 82 74 71 70 72 75 77 77 76
75 79 79 78 80 84 88 93 99 103 102 101 103 107 110 111 111 107 103 100 97 96 95 83 83 79 80 83 78 68 62 62 63 62 64 65 67 64
75 75 76 79 85 91 96 97 95 96 102 107 110 113 113 111 107 104 98 91 86 82 81 73 78 73 70 74 69 59 58 61 63 61 59 60 60 57
72 77 81 86 89 90 90 95 99 103 108 112 115 114 113 107 101 94 87 81 75 71 69 65 70 69 66 68 68 56 54 56 59 57 55 55 56 56
77 81 82 84 89 94 98 102 107 110 113 114 114 108 101 96 90 84 78 73 66 62 65 63 62 60 58 56 55 48 48 46 47 45 45 46 47 47
72 78 85 89 94 99 103 108 111 112 108 100 96 92 87 80 75 72 69 64 64 63 59 55 52 49 47 45 39 38 36 36 34 33 35 36 37 39
78 85 89 95 99 102 104 103 97 91 88 85 79 76 71 68 65 63 63 64 60 57 50 46 45 40 38 35 32 30 29 28 28 28 28 28 29 31
86 91 94 96 96 93 87 85 81 75 71 66 64 63 61 58 57 59 58 55 52 49 44 41 37 35 33 31 29 27 25 23 21 21 22 22 23 23
91 93 91 85 78 76 72 67 63 60 57 56 55 53 52 54 55 52 49 46 45 42 38 34 33 30 28 27 25 22 20 19 18 17 17 17 16 17
88 82 75 70 65 60 57 55 53 52 50 47 47 48 50 50 48 45 41 40 37 34 32 29 28 26 24 23 20 18 17 15 14 13 13 14 16 16
78 72 68 62 56 52 50 47 45 44 43 43 44 48 46 44 43 39 37 34 32 28 25 25 23 22 21 20 20 18 17 16 17 16 16 16 16 16
72 67 62 56 51 47 44 43 41 40 41 42 44 43 41 39 35 32 29 29 26 24 23 22 20 20 20 19 19 18 18 17 17 16 16 16 16 15
66 62 56 51 48 45 42 39 38 39 39 41 41 38 36 34 31 26 24 23 23 22 22 21 21 20 19 18 17 15 13 12 12 13 12 12 11 10
62 57 50 47 44 41 38 35 37 38 38 39 37 34 33 30 26 24 24 23 22 21 20 20 20 18 17 15 13 13 12 13 13 14 14 13 12 12

GFSNE_250_spd_054.txt.gz
Wind_Speed
90 83 85 86 85 85 84 83 82 81 82 84 86 86 82 80 80 81 81 81 81 83 86 88 90 90 90 87 84 84 86 88 89 91 93 97 101 105
83 83 84 85 84 81 81 80 81 84 82 86 87 87 83 84 84 85 89 87 89 91 92 91 87 82 83 82 82 81 82 83 85 86 88 91 94 99
84 83 82 79 76 75 75 78 84 87 86 84 84 82 83 85 87 91 91 93 94 95 91 86 83 82 83 84 84 84 85 87 88 88 88 88 89 92
72 73 73 72 71 73 74 79 86 90 87 83 82 83 85 88 93 95 97 98 95 92 91 91 90 89 88 88 87 88 91 94 95 96 96 97 97 96
70 71 71 71 72 75 79 83 85 86 87 85 85 88 91 94 97 100 96 94 95 98 97 94 93 93 93 92 91 91 91 94 95 97 100 103 105 105
61 65 68 71 73 77 81 80 79 82 84 87 89 92 95 98 98 93 95 99 100 102 101 98 96 96 96 96 98 98 98 99 99 101 104 106 109 111
61 64 66 67 71 75 77 77 80 83 88 92 95 97 98 98 98 101 101 101 101 101 101 106 104 105 106 107 105 104 102 101 101 102 104 107 109 110
68 67 67 68 70 75 76 79 84 89 94 97 98 96 100 102 103 104 101 99 102 109 110 116 115 117 113 111 107 103 99 95 93 94 97 100 103 105
56 65 69 70 71 75 79 83 89 93 94 94 95 98 100 104 102 103 106 109 112 116 118 121 118 115 106 100 96 90 85 80 77 78 82 86 88 90
60 65 67 71 74 79 85 89 93 95 95 98 100 99 99 102 105 108 111 114 119 121 115 107 103 96 92 88 86 78 71 66 66 70 75 76 74 75
61 64 69 75 82 85 87 87 89 95 98 97 98 102 107 110 112 114 116 120 116 109 98 93 89 82 80 77 73 67 62 62 66 67 67 65 62 62
63 69 75 79 80 83 87 90 91 92 97 102 106 110 114 116 116 117 112 102 96 94 88 82 78 73 75 72 66 65 62 59 59 59 59 59 57 57
66 71 73 77 81 81 82 85 91 98 104 109 113 117 117 114 108 100 95 89 82 79 74 69 69 70 66 65 56 56 54 51 49 48 46 44 44 47
65 68 70 75 80 84 88 94 100 106 111 114 115 109 101 97 92 85 79 74 69 65 68 63 61 59 56 51 48 43 43 41 38 38 37 35 35 36
65 70 77 82 86 90 95 101 106 108 107 101 93 90 84 78 74 71 67 64 59 59 62 59 51 45 46 43 38 34 32 31 29 28 28 27 27 27
71 76 83 90 90 94 100 104 100 93 87 83 77 72 68 64 61 57 56 57 59 54 49 49 44 40 36 33 30 28 26 25 24 22 21 20 19 19
78 83 88 92 94 99 98 89 82 78 71 65 62 60 57 53 50 52 54 54 51 47 40 36 36 37 34 28 27 25 23 22 21 19 17 16 16 16
81 87 92 94 94 89 82 75 71 64 58 55 53 51 50 50 50 51 49 45 42 37 35 33 32 28 27 28 25 24 21 18 17 17 16 13 12 11
85 92 92 87 81 77 70 65 58 53 51 48 47 47 48 47 48 45 42 38 32 27 28 30 29 28 27 26 23 22 21 20 17 16 14 14 13 12
89 88 81 75 71 68 62 54 49 46 46 44 45 45 45 45 42 38 34 31 27 24 25 24 25 25 25 24 23 23 22 21 20 18 15 15 14 13
85 79 71 68 63 60 53 47 44 42 42 40 43 43 43 42 37 32 27 24 25 25 25 23 24 25 26 26 26 25 22 20 19 17 16 14 14 14
78 70 66 62 57 52 46 42 40 39 38 39 42 43 40 37 32 27 24 23 23 22 21 22 23 24 24 24 23 22 21 20 19 17 16 15 14 15
70 66 62 57 52 45 41 39 37 36 35 37 39 39 36 32 26 22 22 22 21 19 20 22 23 22 21 20 19 18 18 18 17 16 17 18 17 16

GFSNE_250_spd_057.txt.gz
Wind_Speed
90 86 83 84 86 85 88 88 87 86 88 89 87 85 84 86 84 81 78 80 82 78 76 75 78 82 84 84 86 87 87 88 88 87 86 86 85 82
89 87 84 86 88 91 91 91 90 89 86 85 83 82 82 86 87 85 83 81 77 78 81 82 84 86 88 89 89 87 85 86 86 86 86 86 86 85
89 87 89 90 91 90 88 86 82 80 79 80 80 81 84 86 89 91 89 84 82 86 89 89 90 90 90 89 87 89 92 92 92 92 92 92 92 92
90 92 89 84 80 77 75 78 79 78 78 81 82 86 85 87 89 88 88 88 90 93 94 94 96 94 92 93 95 97 98 95 92 91 90 90 91 92
85 85 82 79 80 76 70 74 73 73 76 80 83 89 86 84 84 86 90 94 96 99 100 98 98 99 101 103 100 96 96 96 96 95 96 98 99 100
82 81 82 75 77 74 77 76 75 74 76 81 81 84 84 86 88 92 95 99 102 105 105 104 104 104 102 102 103 103 101 100 100 100 101 102 104 106
71 71 72 71 69 69 75 78 78 78 79 81 82 84 88 91 94 97 100 102 104 106 106 106 104 107 111 110 106 105 102 96 95 94 94 96 98 101
58 57 59 61 65 67 73 78 78 81 81 83 85 87 91 95 99 102 102 103 107 108 102 110 113 118 117 113 108 98 93 89 86 85 85 87 89 90
52 50 55 59 64 69 70 73 73 75 79 84 87 91 95 99 100 103 104 102 106 110 108 117 121 121 115 106 95 89 86 83 78 76 75 75 77 79
43 47 51 57 65 68 69 73 77 81 85 89 90 93 97 99 99 101 105 108 112 117 112 117 115 103 97 92 83 78 79 74 69 66 66 66 66 67
45 47 50 55 58 62 67 75 82 88 91 91 94 96 96 101 103 107 109 113 116 115 101 97 96 90 84 77 70 68 70 72 64 62 60 59 59 61
42 46 51 57 63 69 77 83 89 91 92 91 93 98 102 105 108 110 112 107 96 94 88 84 79 73 74 68 61 66 66 66 59 56 53 52 51 51
48 53 59 63 70 75 79 84 87 87 90 95 99 103 105 108 110 106 95 89 82 78 73 72 70 66 62 66 63 60 57 59 51 50 47 43 41 41
51 54 57 64 71 76 81 88 91 93 97 100 103 105 107 102 93 87 80 74 68 65 63 60 63 63 61 57 52 51 47 49 45 42 40 37 36 35
55 60 65 70 76 83 88 94 93 96 100 104 104 98 89 82 76 71 65 62 56 54 55 58 58 57 51 49 41 40 40 32 37 32 31 29 29 30
59 66 71 76 82 89 93 93 95 100 100 95 87 79 75 68 62 59 56 52 50 50 50 49 48 45 40 40 30 34 30 31 26 28 24 23 23 24
64 68 74 81 87 92 96 97 98 92 84 78 74 68 62 56 50 49 51 50 51 51 46 40 36 32 31 34 30 30 29 29 27 26 23 20 20 19
69 76 82 87 92 95 95 87 80 77 71 67 64 58 52 46 44 45 49 48 45 40 38 35 31 27 25 28 30 30 30 27 26 25 23 22 20 18
76 82 87 90 91 87 77 73 70 68 63 60 54 50 45 40 44 45 45 42 36 32 29 30 28 27 26 26 26 26 25 24 23 22 20 20 20 19
82 85 89 87 81 72 68 65 63 60 57 50 47 43 41 39 42 42 39 36 29 25 24 26 26 25 25 24 22 21 21 21 20 19 18 18 18 18
84 83 81 79 69 65 61 59 58 54 46 42 40 38 36 39 41 38 33 27 24 23 23 22 22 21 22 22 21 22 23 23 22 21 19 19 18 16
78 78 77 68 63 59 57 56 52 44 40 36 35 34 34 37 37 33 28 22 20 20 21 20 19 18 19 19 19 19 17 17 20 22 23 22 15 8
77 77 71 64 58 55 54 49 43 38 35 31 31 31 33 35 31 28 22 20 19 18 18 16 16 18 18 18 19 18 18 17 16 14 16 18 19 18

GFSNE_250_spd_060.txt.gz
Wind_Speed
101 90 82 92 93 92 91 88 89 90 92 90 91 94 95 94 92 92 87 86 84 85 84 81 76 74 73 69 71 72 75 76 78 79 80 82 82 83
100 90 89 87 89 90 85 81 93 96 96 95 96 96 94 92 88 86 87 87 85 86 83 84 85 81 78 77 78 80 82 82 83 83 83 83 82 82
94 91 88 87 82 92 97 100 100 97 97 98 93 87 87 87 81 82 85 85 84 82 81 78 78 81 83 85 87 88 88 88 88 86 85 87 88 89
89 86 86 87 90 95 96 96 99 99 98 99 89 88 91 89 87 83 85 84 82 84 81 79 81 86 88 89 90 91 91 90 91 92 89 89 90 92
87 85 84 86 88 90 92 94 95 97 95 95 92 90 88 87 89 88 88 88 88 89 87 89 93 92 91 90 92 93 93 91 93 95 99 102 103 103
82 81 81 82 85 86 88 88 89 91 89 88 86 83 88 86 90 90 91 93 97 97 94 94 95 95 94 95 95 94 97 101 105 108 111 112 109 105
76 75 75 78 78 79 82 82 83 80 83 82 84 88 89 91 90 87 86 87 92 94 96 99 96 97 99 100 101 104 106 107 110 112 108 102 96 94
67 69 68 69 69 71 75 78 78 77 80 83 86 89 87 85 83 83 85 89 95 97 96 102 100 105 105 107 108 106 106 106 100 96 92 89 84 82
53 54 56 62 68 69 70 72 73 75 77 78 79 80 79 80 83 89 92 94 96 96 96 105 110 113 112 111 105 101 95 92 86 84 82 77 72 70
47 54 59 56 52 50 53 55 59 64 69 73 77 82 84 87 91 94 97 98 101 103 102 108 111 111 107 97 89 83 78 75 75 75 74 68 67 65
31 37 36 37 41 46 51 57 63 68 73 79 84 86 88 91 95 97 99 101 103 105 104 108 105 96 91 81 74 69 66 66 65 70 67 66 62 60
29 34 38 43 48 52 59 64 69 74 78 84 88 90 92 96 100 100 100 103 105 106 96 92 86 78 77 70 64 59 57 60 60 65 58 59 55 54
39 42 46 49 53 59 64 68 74 79 84 91 94 96 97 100 103 105 106 100 91 84 80 77 74 67 63 67 65 58 55 49 55 53 51 53 53 51
40 44 48 53 58 63 69 74 80 87 92 96 98 98 103 106 103 95 84 77 74 71 66 63 63 61 60 62 63 57 50 42 47 46 44 45 45 47
44 48 53 58 64 70 76 81 86 91 95 100 102 102 98 91 84 77 70 65 60 56 55 58 58 56 54 54 55 49 47 39 41 40 38 38 38 40
50 54 59 65 71 77 82 87 90 93 95 94 92 88 82 75 69 67 61 55 52 47 48 51 51 51 47 45 43 43 42 40 36 36 35 35 34 34
56 61 67 73 78 83 86 89 88 86 83 84 83 76 70 62 59 56 50 48 45 46 45 44 44 41 37 39 37 38 37 36 35 33 33 33 31 31
63 69 75 79 83 85 83 80 78 78 78 75 71 65 60 55 49 45 44 42 42 43 43 43 38 33 32 32 32 33 34 33 34 33 31 29 30 28
70 76 80 82 82 76 76 74 73 74 69 65 62 58 54 46 42 41 38 39 40 39 35 38 33 31 26 28 30 28 27 29 29 29 28 25 22 24
75 80 83 81 74 73 71 71 69 64 60 59 55 49 44 41 37 36 36 39 39 34 29 30 28 25 25 26 25 26 28 26 24 22 20 21 24 23
79 83 80 75 72 69 68 64 60 58 56 51 45 41 39 36 34 34 36 37 35 32 26 23 22 22 23 23 23 23 24 24 24 24 23 18 14 18
82 83 76 75 71 69 63 59 57 54 48 42 38 37 34 33 31 34 36 35 29 26 22 21 20 20 20 21 21 20 18 21 23 24 23 24 21 17
83 79 75 73 70 63 56 56 53 46 41 37 35 32 32 31 31 35 35 31 27 20 20 19 18 18 18 18 18 17 18 20 19 18 19 22 22 21

GFSNE_250_spd_063.txt.gz
Wind_Speed
115 113 110 110 109 104 100 92 86 85 87 86 88 95 92 99 93 94 100 102 106 103 100 91 81 81 79 74 72 68 68 67 67 64 62 64 66 68
123 120 116 108 100 95 92 88 92 89 87 89 93 98 101 102 99 102 106 106 104 103 101 96 87 85 83 78 73 72 72 72 70 69 71 74 77 80
111 108 104 100 95 94 92 91 94 93 96 99 101 104 104 105 104 106 107 106 105 102 98 95 91 86 83 82 81 80 79 78 78 79 82 85 86 89
106 104 100 96 93 91 90 88 87 87 89 93 97 98 101 103 105 104 106 108 103 100 92 89 85 84 82 83 85 86 89 87 84 85 87 90 91 90
95 94 92 90 88 86 86 86 86 88 90 93 94 95 99 103 105 106 103 103 99 95 92 89 86 84 82 81 81 82 83 85 87 90 93 93 94 94
84 86 86 85 84 82 79 80 80 82 85 88 90 94 97 98 100 99 96 93 91 91 88 88 86 82 82 81 83 84 86 88 89 92 95 97 100 102
64 70 77 79 78 74 72 73 73 75 78 82 86 88 90 93 93 93 92 91 89 83 81 83 80 84 85 85 84 83 86 90 93 97 99 102 104 104
43 51 60 65 65 63 64 67 68 69 73 76 80 82 85 75 77 76 76 76 80 83 85 90 87 90 89 90 91 91 93 96 99 101 102 102 99 95
28 34 41 48 53 55 58 61 62 63 68 65 61 63 66 70 75 78 80 83 86 89 90 97 93 96 95 95 94 95 96 96 95 92 88 86 84 82
18 25 31 36 39 41 39 41 44 48 53 56 62 67 72 77 81 85 88 90 92 95 97 102 100 101 101 94 91 89 85 81 78 78 76 74 72 71
13 13 17 22 28 33 39 43 48 53 58 63 69 75 80 85 89 93 97 98 100 101 99 101 99 98 92 80 78 75 72 69 67 64 63 64 66 63
23 24 26 30 35 40 46 51 56 62 66 71 76 80 86 91 95 99 101 103 104 103 101 99 86 77 81 71 67 62 58 56 55 56 59 61 60 59
29 32 35 38 42 47 51 56 62 67 73 79 84 87 91 95 100 104 106 105 99 91 85 82 80 72 65 65 57 50 50 50 52 53 51 50 50 48
33 36 40 44 49 53 59 65 70 75 79 84 88 92 96 97 97 97 93 89 85 77 72 70 69 64 58 53 54 48 48 46 46 42 40 40 42 44
39 44 48 52 57 62 67 71 75 79 83 86 88 86 86 89 88 87 82 77 72 65 61 60 58 55 50 50 54 50 47 36 37 36 36 38 39 41
48 51 55 60 64 68 72 77 81 85 83 76 77 82 85 83 80 75 70 65 63 58 48 49 49 47 48 48 48 44 37 37 33 36 35 37 37 35
55 58 63 67 72 76 79 83 86 79 71 76 81 81 79 73 67 63 62 60 56 48 40 40 42 44 46 42 36 34 33 34 36 34 32 31 33 35
60 64 69 73 76 80 83 88 80 72 76 79 79 77 70 63 61 58 54 49 45 39 37 38 40 41 36 33 30 31 32 32 31 31 32 31 30 32
67 70 74 77 81 85 88 83 73 75 78 77 72 66 62 59 55 48 42 39 38 34 34 38 40 35 29 27 29 29 27 29 28 28 28 28 29 28
71 74 78 81 86 88 83 71 73 75 74 69 64 61 56 50 45 41 37 34 33 31 33 33 34 27 25 27 27 27 28 26 26 25 24 23 25 25
75 77 81 86 88 83 72 73 74 71 67 63 59 52 47 43 40 37 33 31 30 33 33 27 24 23 24 24 24 22 24 25 24 23 23 21 21 19
77 81 86 88 82 72 72 73 70 66 62 56 49 44 42 40 37 33 31 28 29 32 31 24 20 21 21 23 22 19 20 21 21 21 22 20 19 16
79 86 88 78 72 72 72 70 64 60 54 48 44 41 39 35 33 31 27 27 31 30 26 20 21 20 20 21 18 18 19 17 14 11 12 15 15 17

GFSNE_250_spd_066.txt.gz
Wind_Speed
117 115 113 112 114 115 113 110 107 99 88 70 69 76 79 79 89 94 97 97 102 104 103 103 106 105 103 103 102 98 97 85 71 68 70 70 65 63
110 108 108 109 106 105 104 101 99 93 89 82 88 93 89 96 97 96 96 101 106 105 105 107 108 111 111 108 104 102 92 81 72 67 66 69 72 72
99 99 98 98 98 98 95 93 94 91 93 90 86 93 87 85 94 99 100 99 102 106 106 111 113 112 111 109 105 97 85 80 75 69 70 70 72 75
83 81 81 85 91 93 87 83 84 86 87 87 87 88 92 96 97 94 96 100 105 109 109 111 112 114 113 106 92 82 79 78 75 75 75 75 76 75
63 62 61 64 69 79 85 86 85 81 81 81 83 84 89 92 94 96 101 104 107 107 106 108 108 105 96 92 85 81 77 76 75 72 74 74 76 77
49 47 44 44 49 60 70 79 84 84 82 80 78 78 81 83 86 88 91 94 96 96 96 94 91 89 82 77 75 74 75 77 77 77 78 80 82 84
35 31 31 31 34 43 54 64 70 73 76 78 80 79 79 80 81 82 83 85 84 84 84 78 80 81 79 80 78 78 80 80 82 85 87 88 90 91
24 18 17 18 22 28 37 47 56 63 67 71 73 75 72 68 68 70 72 73 74 75 81 81 83 85 85 85 86 85 82 82 86 90 93 94 94 95
30 26 22 17 15 17 23 29 36 43 48 51 52 54 59 61 64 67 72 75 77 80 84 88 88 90 90 87 84 85 89 90 90 91 90 89 88 88
25 22 20 19 17 17 18 22 27 32 38 44 50 55 60 65 69 73 78 81 84 87 90 96 96 101 97 90 86 83 81 80 79 78 77 76 76 74
32 29 27 25 24 24 27 30 34 40 46 51 56 62 67 73 78 81 85 89 92 95 98 102 103 105 97 87 79 76 73 71 68 65 65 65 63 60
35 35 35 36 37 39 41 44 47 51 56 61 65 69 75 80 84 87 91 97 101 101 99 99 91 86 90 83 67 60 60 59 59 56 54 56 53 53
38 38 38 39 41 44 47 50 55 59 64 68 72 76 80 84 87 92 95 94 92 90 86 85 85 80 74 70 64 54 54 49 46 46 49 49 49 49
43 44 46 47 49 52 56 59 63 67 71 74 76 79 83 86 89 86 84 86 87 85 80 75 72 67 64 61 55 47 44 38 43 44 43 43 43 43
46 48 50 52 54 58 61 64 69 72 76 78 79 83 85 82 79 81 83 84 81 73 65 61 62 62 57 50 48 39 40 33 39 38 36 35 36 36
52 54 57 58 61 64 67 71 75 78 79 81 84 81 76 77 79 80 79 74 68 61 57 55 52 50 47 39 40 42 40 37 31 33 31 31 33 33
56 58 60 62 66 69 72 76 80 81 84 83 75 74 77 79 77 72 67 63 60 56 46 40 39 42 41 35 38 38 39 31 29 28 29 28 31 33
60 63 65 68 70 73 78 81 84 85 79 71 74 77 77 73 67 62 58 54 49 43 38 34 33 37 36 33 37 34 30 27 26 27 28 26 24 26
63 65 67 69 73 77 81 84 83 75 71 74 78 73 70 63 58 52 46 42 40 38 32 30 32 34 36 32 30 28 24 25 24 24 25 24 22 21
63 65 68 72 75 79 82 79 72 71 77 77 74 69 62 56 50 44 40 38 35 30 28 26 31 35 33 30 25 24 22 20 21 21 21 19 19 18
65 68 70 73 76 80 78 73 74 76 76 74 69 63 56 50 45 41 37 33 30 29 28 25 29 32 31 26 23 23 23 22 19 17 17 16 17 15
67 69 71 73 77 78 74 74 75 76 74 70 63 58 53 47 42 37 33 29 28 27 28 29 30 30 26 23 22 20 20 20 18 16 17 15 14 14
67 69 72 75 78 73 74 76 75 73 69 63 58 53 49 44 39 34 29 27 27 26 29 32 29 28 22 20 20 19 19 16 13 16 15 13 13 11

GFSNE_250_spd_069.txt.gz
Wind_Speed
110 107 104 100 99 96 96 98 98 97 94 92 91 90 89 85 83 79 75 82 77 76 83 92 93 95 99 104 100 98 99 101 104 102 100 103 99 97
103 99 93 97 98 95 90 89 93 97 94 94 87 85 87 87 83 79 83 83 79 77 84 94 98 102 103 102 103 104 105 107 104 106 108 104 107 97
91 86 88 87 80 78 74 71 72 74 80 90 89 87 84 87 88 89 90 89 92 97 101 103 103 105 104 103 108 108 104 107 108 110 112 108 98 88
89 87 82 75 64 59 59 55 55 57 61 79 86 88 85 75 82 84 86 89 90 93 94 99 101 103 105 107 108 109 112 113 111 108 102 95 87 79
80 83 76 68 61 52 46 46 45 48 55 64 79 83 82 82 76 76 80 86 84 86 91 99 102 105 104 104 102 99 98 97 95 93 89 81 76 72
63 63 63 62 53 43 37 33 34 37 41 48 57 68 77 79 82 84 85 84 83 87 92 94 97 94 93 93 93 92 89 86 82 81 81 80 79 78
52 53 53 49 41 35 28 22 21 23 27 33 43 50 58 66 73 78 81 84 85 86 86 86 89 87 84 81 80 80 80 81 82 83 85 86 86 84
47 47 45 42 40 38 32 27 22 19 20 23 30 38 46 53 59 62 65 69 72 77 78 79 80 81 83 84 84 85 85 85 86 88 87 87 88 90
44 44 44 43 41 37 34 32 30 27 26 26 29 33 38 44 49 55 60 64 67 73 76 78 83 85 86 87 89 90 89 89 86 83 83 85 86 85
43 42 42 40 39 36 34 32 31 31 31 32 35 39 43 48 53 57 63 67 70 75 81 83 86 89 92 93 94 93 89 80 76 78 82 81 78 75
46 44 44 44 43 43 43 43 43 43 44 46 48 51 54 59 64 68 72 75 78 80 85 89 90 95 98 94 88 79 76 74 73 76 73 68 66 66
48 48 47 46 44 45 45 46 47 49 52 55 57 60 64 67 70 74 78 79 83 85 87 91 91 89 89 84 80 76 72 67 61 64 64 62 59 58
51 50 50 50 50 50 51 52 53 55 58 61 65 68 71 73 75 77 80 84 86 85 79 78 78 76 78 83 80 69 62 56 54 57 56 52 50 48
54 54 54 54 54 55 56 57 59 62 65 67 70 72 75 77 78 79 78 77 75 74 74 74 77 74 72 71 69 62 58 52 47 46 43 43 43 44
57 58 58 59 58 58 60 62 64 66 68 71 72 75 74 72 70 71 74 76 77 73 69 67 65 65 64 62 63 53 49 42 35 36 39 37 39 41
59 60 60 61 61 62 63 65 66 69 72 72 74 72 70 73 76 78 77 74 70 64 60 58 57 57 57 52 49 43 38 38 31 31 38 34 35 34
60 61 62 62 63 65 66 68 71 73 74 74 74 70 74 77 79 77 72 64 59 55 49 47 46 47 47 43 40 34 35 33 34 34 32 27 29 29
60 62 62 65 67 68 69 70 72 73 75 76 72 72 78 79 77 71 62 56 52 48 43 39 39 42 42 37 34 32 35 35 31 30 27 24 24 25
63 63 66 67 67 67 70 71 71 75 77 75 70 74 78 76 73 63 57 52 47 43 39 37 35 36 37 34 23 32 38 31 26 25 25 22 19 22
66 67 68 69 68 70 72 72 74 76 77 70 70 76 75 74 68 61 53 48 43 39 35 32 32 34 35 33 28 25 33 26 23 23 24 20 19 18
65 67 68 69 69 70 73 73 76 76 71 70 72 73 72 69 64 58 51 45 40 37 33 30 29 31 33 34 33 24 26 22 21 22 21 18 17 15
65 66 67 68 68 71 72 74 75 71 69 72 72 71 70 64 61 56 48 43 37 35 35 32 27 28 32 37 32 23 22 21 20 20 22 17 17 14
68 69 67 68 70 72 73 75 73 69 69 70 70 69 66 61 56 52 48 41 37 34 33 33 31 32 33 32 27 20 22 21 20 20 18 15 14 13

GFSNE_250_spd_072.txt.gz
Wind_Speed
108 108 104 100 100 97 92 89 88 85 82 83 86 85 77 90 83 83 88 85 83 86 86 80 80 82 87 86 87 84 85 89 94 97 94 96 98 100
105 99 95 93 92 89 87 89 84 73 72 71 70 74 69 85 86 89 85 85 86 91 91 95 89 90 88 85 84 91 93 90 89 94 99 103 103 105
93 88 84 81 82 85 87 88 80 69 59 57 55 57 64 75 70 82 87 87 87 94 89 92 91 90 92 89 91 95 94 92 98 105 111 104 104 100
82 78 72 71 75 77 77 76 77 67 54 46 40 43 48 56 61 75 84 89 88 88 89 92 92 88 94 94 94 97 96 96 100 102 98 99 105 108
73 67 64 64 64 65 68 65 62 59 51 41 34 36 43 50 61 72 79 86 90 87 88 89 92 89 89 90 93 91 93 96 97 98 100 100 98 94
64 59 59 60 59 59 57 58 54 49 42 33 25 23 32 45 53 64 62 66 76 73 79 81 82 86 87 91 93 96 96 96 96 94 94 87 81 80
56 56 57 56 55 57 57 53 52 49 43 36 31 29 26 24 29 37 42 51 58 65 74 78 83 86 87 88 90 90 88 85 83 85 85 86 86 87
53 55 54 53 54 55 56 54 51 48 43 39 37 33 29 28 27 30 32 37 42 48 54 59 63 67 70 73 76 79 81 84 87 89 90 91 91 90
53 55 54 53 54 55 55 56 55 51 48 44 39 36 34 34 36 39 42 46 49 56 60 64 69 73 76 79 82 84 85 88 90 90 92 93 93 90
53 54 54 54 55 55 55 56 57 57 55 52 50 49 49 49 51 52 55 58 61 66 70 72 78 79 81 84 86 87 88 90 91 91 89 87 85 84
53 55 56 56 57 58 59 59 58 57 55 53 53 54 54 55 56 58 60 62 66 70 75 78 81 85 87 88 89 87 85 83 81 79 80 81 82 83
53 56 58 58 60 61 61 61 61 60 58 58 59 59 59 59 60 62 64 68 72 72 70 72 74 77 79 80 80 79 79 78 78 76 76 75 74 73
54 56 58 60 61 62 63 65 64 63 62 63 64 65 65 66 66 67 70 74 70 66 68 75 79 79 81 82 78 74 72 71 69 66 65 64 63 65
55 57 59 60 61 62 63 64 63 64 65 67 68 68 69 68 68 72 75 75 69 70 73 76 78 75 73 74 75 70 65 61 57 55 56 55 53 53
55 58 59 61 61 62 62 62 64 65 68 69 68 69 70 70 73 76 76 69 70 72 73 72 68 66 64 63 64 61 58 50 46 44 43 40 40 44
56 58 59 61 62 63 64 66 68 70 71 71 70 72 72 73 77 75 69 71 71 71 71 64 61 59 57 55 53 50 45 43 37 34 36 32 36 36
58 60 62 63 65 67 68 70 71 71 72 72 71 73 73 76 76 69 71 72 72 69 60 58 55 53 50 47 46 43 41 37 35 30 28 30 32 35
56 59 61 63 64 65 66 66 68 71 72 72 71 73 75 76 72 69 71 72 72 66 56 50 50 49 46 43 42 35 34 33 30 28 31 31 29 31
60 63 65 65 66 67 68 68 70 72 70 70 72 74 77 74 69 68 69 70 68 63 54 48 46 45 42 41 34 32 35 32 30 28 31 27 25 27
63 67 69 68 67 68 69 70 72 70 71 72 74 76 75 70 66 67 67 67 64 60 52 44 42 42 39 39 37 19 24 36 35 27 29 24 24 27
67 71 71 69 68 69 70 71 71 71 73 75 75 72 68 66 66 66 66 64 60 56 52 43 38 39 38 36 37 31 20 29 41 28 27 24 23 27
71 74 70 68 68 70 71 70 71 74 74 73 70 67 67 66 66 66 65 61 57 52 50 46 39 36 35 36 38 38 32 27 38 28 25 26 24 26
75 71 67 67 69 70 71 74 75 71 69 69 69 68 67 65 64 66 63 59 54 50 46 45 40 37 36 34 36 41 33 26 31 26 26 27 25 25

GFSNE_250_spd_075.txt.gz
Wind_Speed
120 122 115 113 108 102 98 91 84 76 74 78 80 79 72 66 64 64 66 73 80 78 78 81 77 75 77 78 77 81 86 83 69 75 76 78 77 87
118 111 109 106 99 93 86 79 75 72 73 75 77 78 72 60 54 55 56 66 75 77 83 86 83 85 87 84 78 87 80 78 80 81 84 88 89 85
108 106 102 97 87 80 76 72 69 69 71 72 72 74 72 61 48 43 46 53 73 80 83 81 86 85 88 87 89 88 90 95 95 96 100 93 90 91
103 98 92 84 78 72 70 67 66 66 68 68 70 68 65 62 47 32 29 40 55 81 85 82 86 90 93 93 96 94 95 97 98 101 107 100 94 97
94 88 81 74 70 68 65 62 63 64 64 64 66 64 60 57 50 36 25 28 38 60 68 74 80 88 92 97 100 97 96 101 105 107 106 105 99 98
84 78 73 70 68 65 61 60 62 62 61 63 63 61 58 53 43 33 27 23 21 26 35 49 67 78 88 94 95 99 100 101 104 108 108 108 105 101
75 71 69 67 65 60 59 60 61 62 60 60 60 60 58 52 46 41 35 33 32 30 28 29 36 45 60 76 85 90 93 99 101 100 97 93 92 92
68 67 66 64 57 55 58 61 63 62 61 61 60 61 59 56 51 47 42 40 39 39 40 41 48 49 53 57 62 67 71 75 79 83 86 89 91 91
64 63 59 53 53 57 60 60 62 61 61 62 61 61 59 56 54 52 51 50 50 50 50 52 56 58 61 65 69 72 76 79 83 87 91 93 95 97
60 54 51 54 56 59 59 60 61 61 62 62 61 61 59 56 55 55 55 54 54 56 56 59 62 65 68 72 76 79 79 81 83 86 89 91 93 95
51 51 53 55 56 58 60 61 61 62 62 62 63 63 61 60 59 59 59 57 56 59 60 62 66 70 72 76 74 73 75 80 84 88 91 92 92 93
50 52 54 55 58 59 60 61 62 62 62 63 64 64 64 65 65 65 64 63 63 64 66 70 71 69 67 67 71 75 80 82 83 85 86 87 87 86
51 53 56 57 58 58 59 60 61 63 64 65 66 68 69 70 70 69 67 66 67 68 70 74 71 66 71 73 71 70 71 70 71 70 71 72 72 71
52 55 56 56 57 58 60 62 64 65 66 66 67 67 67 67 67 68 68 68 69 71 73 75 71 70 71 72 70 62 59 59 58 57 58 59 59 59
54 54 53 53 54 56 58 60 63 64 65 66 67 68 67 67 69 71 70 70 72 73 75 73 71 72 71 67 63 57 56 50 49 48 48 48 48 48
49 49 51 54 57 59 62 64 66 68 68 68 67 68 68 69 71 71 72 73 75 74 71 68 70 70 70 61 56 52 49 46 39 40 42 40 39 40
47 50 54 58 61 62 65 68 70 72 70 68 68 69 69 71 72 73 74 76 74 70 64 65 68 69 67 57 51 47 45 40 36 32 33 34 31 34
53 55 59 62 63 65 68 71 74 74 70 67 68 69 71 72 73 75 76 73 69 66 66 64 63 64 65 56 48 44 40 38 31 30 29 30 25 32
57 59 62 65 66 69 72 75 74 69 67 68 70 71 73 76 77 74 70 69 68 68 66 63 62 61 60 55 49 39 41 35 33 29 24 23 28 30
61 63 65 69 71 74 76 75 70 68 69 70 72 75 75 72 70 69 68 66 65 64 66 62 59 59 56 53 52 40 32 36 33 33 29 27 31 30
65 67 70 73 74 76 74 70 70 69 71 74 74 71 71 70 69 67 65 64 64 65 66 63 57 53 51 49 50 46 35 29 32 35 36 33 32 30
68 71 73 75 76 73 69 69 70 73 74 70 71 70 68 68 68 65 63 62 63 63 62 62 57 51 46 46 47 46 43 32 30 34 39 34 29 28
70 73 74 74 73 69 70 72 74 70 69 68 68 68 67 66 63 63 63 64 63 63 59 57 55 51 48 44 43 45 44 39 29 31 35 34 28 28

GFSNE_250_spd_078.txt.gz
Wind_Speed
106 109 113 115 118 117 112 105 99 93 85 79 75 71 68 69 69 72 71 67 60 49 42 49 61 75 78 73 66 73 71 77 73 78 79 75 76 76
110 112 113 115 112 105 102 99 94 87 79 72 71 66 65 68 70 71 68 62 54 44 32 37 54 67 73 73 72 71 81 73 73 74 76 78 77 79
111 112 113 109 102 98 99 94 87 79 73 69 67 64 64 66 68 69 65 58 51 39 28 32 47 64 72 78 78 77 76 75 79 81 82 83 77 80
110 109 104 97 95 97 94 86 80 73 69 67 63 62 63 65 68 66 62 55 49 40 29 26 34 48 65 67 76 75 76 78 82 85 85 86 90 87
102 97 92 92 94 93 86 79 73 69 66 61 59 61 64 65 65 63 59 52 45 38 31 29 31 34 43 50 68 80 78 83 96 90 92 97 95 94
88 87 89 93 93 84 77 71 68 63 58 56 59 61 62 62 61 59 56 50 46 41 36 32 29 33 40 55 64 72 78 74 81 88 93 97 103 105
85 86 92 92 83 74 69 67 61 56 56 59 61 61 61 61 60 57 54 52 49 46 41 40 40 41 42 45 44 47 51 60 74 86 94 100 101 107
84 89 92 81 74 67 66 60 57 57 58 58 61 61 62 61 59 58 56 54 51 50 48 47 48 47 48 50 53 55 58 60 64 68 73 76 81 86
88 91 79 72 66 64 60 57 58 58 58 60 62 61 61 61 62 61 60 60 57 56 54 54 54 52 52 55 58 60 62 65 68 72 76 80 82 84
82 76 69 63 62 59 57 57 57 58 60 61 63 64 64 65 65 64 64 63 63 62 61 60 58 57 58 60 60 61 63 67 73 78 81 82 84 87
70 66 63 60 59 58 58 57 58 60 62 63 62 63 63 63 63 63 63 62 62 60 59 59 60 61 63 63 63 64 66 70 70 70 72 76 80 82
63 63 60 59 58 58 58 59 60 59 59 59 61 62 64 65 66 67 66 65 64 64 64 65 64 63 63 64 65 66 68 66 67 70 74 76 78 81
62 60 57 57 56 58 59 57 56 58 60 62 64 65 67 69 70 70 67 66 65 64 65 67 66 66 67 67 64 63 61 62 66 67 71 70 67 68
58 55 54 54 56 56 54 54 56 60 63 65 67 69 71 73 74 72 68 67 66 66 67 68 69 68 69 68 63 56 57 62 63 63 62 61 58 57
51 53 53 53 52 52 53 57 60 63 66 67 69 71 75 76 74 70 68 69 70 69 69 68 69 69 66 64 65 59 58 58 56 59 56 53 51 50
49 49 48 49 52 55 59 61 64 66 69 70 72 76 78 76 71 71 71 72 72 71 70 69 67 66 67 65 63 60 57 57 51 50 49 48 46 45
43 45 49 52 56 59 61 64 67 70 72 75 77 80 79 73 72 71 72 74 73 70 67 67 64 63 63 63 62 59 57 53 51 47 42 42 39 40
46 51 54 57 60 62 65 68 71 73 75 78 81 79 73 72 73 75 74 73 70 68 63 61 59 60 63 64 61 61 54 52 49 46 40 39 37 34
52 56 59 62 64 67 69 71 73 74 78 80 78 72 73 75 77 75 73 72 68 67 65 61 56 57 61 63 63 57 54 51 45 43 39 36 38 28
56 58 61 63 67 69 71 72 75 77 79 76 71 73 75 76 74 73 70 68 68 66 63 59 57 57 58 59 62 62 51 45 43 43 38 36 35 33
57 61 64 67 69 71 72 74 76 76 72 69 72 75 73 73 71 69 68 67 65 63 63 62 58 55 55 54 56 58 55 43 38 43 41 38 36 37
62 66 70 72 70 72 74 75 75 67 68 71 73 71 71 69 68 67 66 64 62 60 61 62 60 56 53 50 50 52 51 42 36 35 37 39 39 39
67 71 73 72 73 74 75 71 67 67 70 71 70 68 66 66 65 64 62 61 61 62 60 60 57 54 51 46 44 44 43 40 32 29 33 33 38 38

GFSNE_250_spd_081.txt.gz
Wind_Speed
100 103 105 105 108 112 111 108 109 101 97 92 94 91 82 75 70 65 59 60 61 61 61 58 53 44 31 31 43 58 65 69 68 68 70 71 62 60
105 105 106 108 110 107 107 107 104 97 88 90 92 84 76 70 65 57 57 60 61 61 60 54 50 39 30 27 34 48 57 64 68 64 71 78 70 67
105 106 104 108 104 105 104 102 97 89 89 90 87 77 70 64 57 56 58 59 60 60 57 56 48 38 31 27 33 45 56 62 67 67 66 76 76 70
104 103 105 104 106 102 99 93 88 88 88 90 78 71 63 57 57 58 57 59 59 58 54 48 45 40 33 28 26 39 47 56 67 69 72 71 70 78
105 101 105 104 100 95 88 88 87 86 88 80 71 64 57 58 59 59 60 60 59 56 53 49 43 39 38 36 34 38 43 50 56 56 71 74 78 79
99 99 95 93 89 81 85 86 86 87 80 72 65 58 57 58 58 59 61 61 59 56 54 52 48 44 41 38 38 44 47 48 54 57 63 69 73 79
91 86 85 81 77 82 85 88 88 80 73 65 59 57 59 58 60 60 60 59 59 58 56 55 53 51 48 46 46 46 48 52 55 56 60 61 64 70
81 80 76 77 79 83 89 86 77 69 65 60 57 59 59 60 60 60 60 58 58 58 57 58 57 55 53 52 53 54 55 56 57 59 61 64 68 69
73 72 75 79 83 86 77 74 69 64 61 59 58 59 60 60 58 59 59 60 60 61 61 62 61 60 59 57 56 55 55 57 61 64 67 68 68 69
73 75 79 81 75 76 71 66 63 61 58 59 59 60 59 58 59 61 62 63 64 66 66 66 65 63 61 60 59 59 60 62 63 64 65 67 69 71
78 82 76 73 69 66 65 63 60 57 57 57 59 57 58 59 61 63 65 66 68 70 71 70 66 63 61 60 61 61 62 63 64 64 67 68 71 73
76 70 67 66 63 62 61 59 56 55 57 56 56 57 60 62 65 66 68 71 72 73 73 71 65 63 63 63 63 62 61 62 63 66 68 67 67 65
64 62 60 61 60 58 57 54 54 55 54 55 57 61 64 67 69 71 74 75 75 76 73 67 66 66 66 65 64 63 63 61 61 62 61 62 63 63
57 57 56 56 55 54 52 52 52 52 54 58 61 64 67 69 72 75 77 78 78 76 71 70 70 68 68 65 63 58 59 59 60 60 61 62 61 59
50 51 50 49 49 49 49 48 50 54 58 62 65 67 70 74 76 78 79 81 78 73 72 72 70 67 65 64 64 58 55 55 56 58 60 62 59 57
45 44 44 45 46 46 48 51 55 59 62 65 68 71 74 75 77 80 81 79 74 73 73 71 68 67 65 62 61 60 56 54 49 51 57 59 57 55
41 41 42 43 46 50 53 56 59 62 64 68 71 72 74 77 80 81 79 75 76 74 69 69 67 65 64 62 59 56 54 52 49 50 52 55 54 52
41 44 45 48 51 54 56 58 60 64 68 70 71 74 77 80 81 76 74 75 73 72 70 65 63 64 63 60 57 58 54 52 50 51 50 52 53 48
46 48 50 53 55 55 58 61 64 68 71 74 75 78 81 81 75 73 74 71 72 71 67 64 62 61 60 59 60 56 57 54 51 50 47 46 49 48
50 51 54 56 56 58 62 66 68 72 74 76 79 80 76 72 73 71 69 69 69 68 68 63 59 58 57 59 61 62 54 52 47 46 44 42 42 45
54 56 56 58 60 62 66 70 72 75 77 79 78 71 67 71 70 68 67 67 66 66 66 61 57 57 57 55 56 58 56 48 43 41 40 40 40 42
58 59 60 63 65 67 71 74 77 78 78 76 68 66 69 68 67 67 66 66 65 64 62 60 60 58 55 51 51 50 48 43 38 37 37 38 40 43
61 62 64 68 71 74 77 78 79 78 73 67 68 69 66 66 65 65 64 63 63 62 59 60 59 55 50 48 45 42 40 39 37 34 29 32 37 40

GFSNE_250_spd_084.txt.gz
Wind_Speed
94 96 98 100 102 102 106 110 111 113 107 110 106 103 95 96 90 85 79 69 61 57 57 56 55 54 53 48 44 40 34 25 25 38 60 62 57 65
99 101 103 105 104 106 109 111 110 107 106 99 97 93 92 89 87 82 71 64 57 56 56 56 54 51 51 49 43 39 32 24 21 38 53 61 59 65
103 106 108 108 109 108 108 109 109 103 101 94 90 89 89 87 86 73 65 59 56 56 56 55 54 52 49 47 45 39 33 25 28 32 46 59 62 69
106 107 109 107 102 103 106 105 99 99 91 90 86 86 87 88 77 67 61 56 56 56 56 56 53 52 50 46 42 41 38 34 29 31 44 47 60 63
107 108 101 99 102 100 96 94 92 89 88 84 83 85 87 77 68 63 58 58 57 58 57 55 53 50 48 46 44 42 41 39 38 39 39 45 49 46
100 98 98 99 95 93 92 88 86 84 82 82 84 87 82 70 65 60 58 58 58 57 55 54 54 52 52 48 48 47 45 45 45 44 47 53 55 56
96 95 97 93 95 91 84 82 81 77 79 82 85 80 71 66 62 57 58 59 58 56 56 56 56 56 56 55 55 55 54 51 50 52 54 55 56 57
91 89 88 91 87 81 80 78 77 80 83 81 77 71 65 62 57 57 58 59 58 58 58 59 59 59 60 60 60 60 60 57 55 55 56 57 61 64
85 83 82 80 76 77 74 75 79 84 80 74 67 65 63 58 55 57 58 58 59 60 61 63 64 65 65 65 66 65 62 58 56 56 58 60 61 63
78 76 74 72 71 70 74 78 83 75 70 67 63 62 58 55 56 56 58 60 62 64 65 66 68 69 69 69 68 65 61 58 58 58 59 60 62 64
69 68 65 65 70 73 78 77 70 67 64 62 60 58 55 55 56 57 60 63 65 67 69 71 72 72 72 71 67 62 59 61 62 62 62 63 64 65
60 64 67 71 74 73 67 65 62 63 61 58 56 54 53 54 56 60 64 67 70 72 74 74 74 75 75 71 64 64 65 65 65 65 64 66 65 66
64 68 71 70 62 61 60 59 58 57 53 52 52 50 52 57 60 64 67 71 73 75 75 76 77 77 72 68 69 68 65 62 61 62 62 61 61 62
68 64 58 57 57 57 54 53 50 48 48 48 50 53 57 60 62 67 71 74 75 75 76 79 77 71 70 72 68 63 63 61 59 57 58 58 58 58
53 54 52 53 51 50 48 46 46 46 48 51 55 57 59 62 67 70 73 75 76 77 78 75 72 72 73 71 69 62 59 56 56 57 56 57 57 56
49 48 46 45 44 44 44 45 47 50 53 56 57 58 62 67 71 74 77 78 80 79 73 71 73 73 71 70 67 63 59 55 51 50 53 56 57 55
45 43 41 42 43 44 46 49 52 54 57 58 60 62 66 70 73 77 79 80 80 73 70 72 72 70 71 69 66 62 57 53 51 50 51 55 57 57
43 43 42 42 44 47 50 53 55 56 58 60 64 67 71 74 77 79 80 80 73 70 73 70 66 67 70 69 66 60 56 54 54 53 52 55 58 55
47 47 47 49 51 52 53 55 57 58 59 63 67 72 75 78 81 82 80 73 70 73 70 67 65 67 67 66 65 59 57 58 57 56 52 51 55 54
51 52 53 55 57 58 59 58 59 60 63 67 72 76 79 81 84 80 71 69 71 68 67 66 66 65 65 64 64 62 60 57 53 53 50 49 53 54
56 57 58 60 62 62 63 63 64 65 67 71 76 79 82 83 78 70 71 70 66 65 66 65 64 63 62 60 61 63 57 53 54 51 46 44 45 46
58 61 63 63 65 66 66 68 69 70 71 75 79 81 83 76 70 70 70 66 64 64 66 65 64 63 60 58 61 59 54 48 46 44 38 40 42 42
61 64 66 67 67 68 70 70 72 74 77 81 83 83 76 70 71 69 66 64 64 64 64 65 63 61 58 57 57 53 47 43 40 37 33 35 39 42

GFSNE_250_spd_087.txt.gz
Wind_Speed
98 99 100 101 101 100 102 106 106 110 107 114 116 113 111 108 100 95 91 87 84 81 75 62 56 53 51 50 51 48 45 41 39 34 32 21 25 48
102 101 101 102 102 105 108 107 110 111 112 119 109 107 103 97 96 89 87 83 83 79 66 58 54 51 51 51 50 45 44 42 39 32 29 23 22 48
104 104 105 105 108 109 109 109 112 115 111 111 106 96 94 94 88 83 82 83 81 72 60 56 53 50 50 50 47 45 42 41 39 34 29 26 24 38
107 107 109 109 111 109 110 111 110 107 108 103 93 93 91 84 84 80 82 83 74 62 58 53 50 50 50 46 45 44 43 40 39 38 34 29 30 29
111 110 108 106 106 109 114 112 106 105 100 90 90 89 83 83 80 81 84 76 65 59 55 53 51 51 49 48 47 46 45 44 42 40 39 38 35 38
108 106 107 109 110 108 108 103 101 96 90 89 84 81 82 79 80 83 75 67 61 58 55 53 52 51 50 51 52 51 50 49 48 46 45 44 44 44
102 103 105 103 98 95 95 96 94 89 85 80 79 79 78 79 80 80 69 62 60 55 53 54 53 52 54 54 55 55 56 54 52 51 49 49 49 50
98 94 91 94 95 92 91 84 84 79 75 76 75 75 77 81 80 68 65 61 57 53 54 53 54 56 58 59 60 62 61 58 56 56 55 52 50 50
85 86 89 84 84 83 82 79 74 71 72 70 74 78 81 69 66 64 60 56 53 53 52 56 58 61 63 64 65 65 64 63 62 60 55 51 48 49
84 81 82 80 78 76 72 68 68 69 69 72 77 73 66 63 62 59 54 52 50 53 57 60 62 64 67 68 68 68 69 69 65 59 53 51 52 54
76 71 70 70 67 63 61 65 67 69 71 73 65 62 60 59 55 51 50 50 55 58 60 63 66 69 70 70 71 72 70 64 58 56 57 58 59 59
65 64 61 61 59 58 60 65 69 71 68 61 60 56 54 51 49 48 52 56 58 61 63 68 70 72 73 72 72 67 61 58 60 61 58 57 57 58
56 55 54 52 54 60 65 68 64 58 57 56 54 52 50 48 49 52 56 58 60 64 69 71 74 76 75 75 67 61 60 61 61 59 58 57 54 54
51 51 52 53 58 62 61 55 54 54 52 50 48 47 49 51 53 57 59 60 63 68 72 75 77 79 76 70 64 63 64 62 61 60 58 56 54 54
52 55 57 59 59 52 51 51 50 48 46 45 47 49 52 55 58 60 61 63 67 71 75 77 80 79 73 67 67 66 62 60 59 61 59 57 54 52
57 58 59 55 49 49 47 45 44 44 44 46 50 53 57 60 60 62 63 67 70 74 77 80 80 73 67 69 69 65 61 60 58 58 58 56 55 54
55 50 47 47 47 47 45 44 44 46 48 51 54 56 60 62 62 63 66 69 74 78 80 81 75 69 72 70 67 64 61 59 57 57 56 57 56 56
42 44 46 47 47 48 49 50 51 52 54 55 56 59 60 62 64 66 69 73 77 80 82 79 72 73 71 69 66 63 60 58 57 57 57 59 60 53
45 47 49 48 48 50 52 55 56 57 59 60 61 62 62 64 66 69 73 77 80 83 81 72 73 70 67 67 68 63 61 56 56 58 58 57 57 51
49 48 49 50 51 53 56 58 60 62 64 65 66 65 65 67 69 72 76 80 83 82 74 72 70 65 64 64 66 63 60 57 54 58 55 52 49 46
48 50 52 54 55 56 57 60 64 66 67 68 69 69 70 71 73 76 80 83 85 78 75 70 65 63 62 62 63 61 57 53 54 55 50 46 45 42
53 55 56 57 57 59 61 63 65 67 68 70 70 71 72 74 77 80 84 85 79 75 70 67 62 61 61 60 59 59 55 53 53 50 42 41 44 42
56 56 58 60 62 63 64 65 67 68 68 69 71 72 74 77 81 84 84 78 75 70 66 64 62 61 60 58 56 55 51 52 51 45 36 38 39 38

GFSNE_250_spd_093.txt.gz
Wind_Speed
98 98 102 102 99 96 98 100 104 107 107 111 113 115 115 117 116 115 118 115 110 104 101 98 89 80 73 68 67 57 50 43 40 37 34 34 34 34
106 105 104 102 103 104 106 106 109 112 117 117 113 115 114 112 117 114 112 110 105 102 98 89 80 73 69 68 63 53 46 41 38 36 34 33 34 34
110 110 108 109 109 110 112 113 115 111 109 110 110 113 114 109 110 110 108 107 100 97 86 79 73 69 67 68 56 49 43 40 37 35 34 33 35 35
111 109 111 112 114 115 117 115 110 108 108 110 108 107 109 108 106 105 98 99 90 82 75 71 68 68 69 57 51 45 40 36 35 34 36 36 37 38
105 105 105 103 103 105 105 105 105 105 104 105 105 107 107 104 101 99 92 88 77 72 70 66 68 66 59 53 46 41 37 36 36 38 39 40 41 41
103 103 104 105 103 102 102 101 103 105 104 102 101 102 100 95 94 90 79 76 69 67 65 66 66 62 53 45 40 37 37 39 39 40 43 45 47 47
98 98 100 99 99 99 100 100 94 95 96 97 96 94 90 87 84 77 71 68 62 61 65 66 61 51 46 41 38 38 40 40 41 44 47 51 53 55
100 99 99 99 100 98 96 95 95 90 91 89 91 89 82 76 72 66 64 59 60 62 65 62 52 45 42 39 41 42 42 42 45 49 53 57 60 60
99 98 99 99 98 95 94 93 87 91 89 88 82 78 73 68 63 60 57 60 61 63 60 53 45 42 41 43 45 46 46 47 50 54 58 62 64 60
101 98 96 93 94 93 90 89 90 85 82 80 74 69 65 60 53 53 57 62 63 57 52 45 43 43 44 46 48 49 50 51 55 58 62 66 66 55
92 90 89 88 87 86 86 83 79 78 72 70 65 59 55 49 50 57 61 59 54 50 46 43 43 46 48 49 52 55 56 57 59 61 65 67 61 51
85 82 80 80 77 75 73 70 67 65 62 58 53 47 47 49 53 56 54 51 46 45 45 44 45 49 52 55 56 56 57 60 62 65 68 67 58 52
78 75 72 70 67 67 62 60 56 54 52 48 46 45 49 52 57 58 50 46 45 43 43 47 49 51 55 56 58 58 59 62 65 68 71 67 59 55
65 64 62 60 58 55 52 50 47 45 43 43 45 47 50 53 55 50 45 42 44 46 48 50 52 55 57 59 60 59 61 64 68 71 72 64 59 56
53 52 52 50 49 48 46 44 46 45 44 45 46 49 53 53 46 46 46 47 48 50 53 54 55 57 59 61 61 60 63 66 70 73 69 63 60 56
44 45 46 45 46 45 45 46 47 46 48 49 50 51 49 45 46 48 50 51 52 54 55 56 58 60 62 62 63 65 67 70 74 72 66 62 58 57
44 44 45 45 46 47 47 48 49 50 50 49 50 45 45 46 49 50 51 54 55 56 56 58 61 63 65 65 67 68 72 75 75 67 62 60 57 55
46 47 46 47 47 48 51 52 51 50 50 48 44 46 47 50 51 53 56 58 59 59 60 62 64 66 67 67 70 72 75 77 70 65 62 61 59 56
45 46 47 50 52 53 52 51 47 44 43 44 46 49 51 54 57 59 61 63 63 63 65 66 67 68 69 71 73 74 78 71 66 63 59 55 59 58
47 47 47 46 46 48 46 44 43 44 44 45 48 51 54 57 60 63 65 65 66 66 68 67 68 69 71 75 78 77 73 66 62 59 56 54 55 57
49 46 46 47 48 47 47 47 46 47 48 48 50 53 55 59 61 62 61 63 66 68 67 65 66 70 74 77 80 74 65 61 58 57 57 55 55 55
49 48 46 46 46 46 48 48 49 49 51 54 56 57 58 60 60 59 61 64 65 63 64 65 67 71 76 78 75 70 65 59 54 54 53 53 54 54
50 49 48 48 47 47 49 52 53 53 54 57 60 59 59 58 61 63 61 58 60 63 63 66 70 74 76 72 70 68 63 55 54 55 52 49 50 52

GFSNE_250_spd_096.txt.gz
Wind_Speed
101 101 101 102 103 104 104 104 104 104 105 104 106 108 110 114 116 115 113 104 105 104 100 99 95 87 80 72 65 63 61 57 52 44 39 35 35 33
106 106 107 108 110 111 112 113 113 113 113 112 112 110 106 105 104 104 105 104 102 101 99 94 89 82 70 67 64 62 60 58 48 41 35 33 32 31
107 110 111 110 109 110 111 111 109 108 105 104 103 102 102 102 102 102 99 100 98 98 95 88 79 73 66 62 60 59 60 51 44 37 33 32 31 31
105 105 105 104 104 104 106 104 104 103 101 99 98 99 97 98 98 100 99 98 96 92 86 80 73 66 61 58 58 58 53 45 40 35 32 32 33 33
102 101 101 102 102 102 101 100 101 102 98 97 98 97 95 96 96 95 95 94 92 83 79 69 64 58 55 56 58 58 46 40 35 33 35 35 34 35
99 100 99 99 98 98 96 97 97 95 94 95 95 96 95 93 95 95 91 88 81 76 69 64 61 55 57 57 58 48 42 37 35 36 37 37 37 38
99 98 98 98 97 96 95 95 95 94 94 93 94 95 96 94 94 89 86 81 75 69 63 59 52 56 57 59 52 45 41 38 38 39 40 40 42 42
95 97 97 96 97 96 95 95 94 93 92 92 94 95 92 89 85 83 78 73 69 62 56 49 51 57 59 53 47 41 40 40 42 43 43 44 45 46
97 97 97 97 97 96 96 96 96 96 95 92 88 90 85 83 79 74 70 66 58 51 47 50 55 58 51 46 41 41 42 44 46 47 48 48 48 50
100 99 98 97 97 96 95 93 91 88 87 86 84 81 73 71 69 65 61 55 47 43 47 51 53 50 45 42 41 42 43 47 49 49 51 52 52 53
91 91 90 90 89 87 86 84 83 82 79 76 72 68 65 62 60 55 52 45 39 46 51 54 52 45 43 42 41 44 47 50 53 53 54 54 53 55
87 86 86 85 83 81 78 76 75 73 69 66 64 59 56 54 52 49 46 40 43 48 52 51 45 41 42 42 43 46 49 52 54 54 55 54 56 58
80 78 76 75 74 74 71 69 67 64 61 57 54 52 50 48 46 43 42 42 45 48 48 43 43 43 45 46 48 49 51 53 55 55 55 57 59 61
64 63 62 60 59 57 55 54 53 52 51 49 48 47 45 42 41 41 42 43 48 49 44 43 45 47 49 49 51 52 54 55 56 57 58 59 62 65
50 48 48 48 47 44 43 43 45 45 46 45 43 42 42 42 43 42 45 46 48 45 45 47 49 50 51 53 55 56 58 59 60 60 61 63 66 68
43 41 40 40 39 38 38 40 41 41 41 42 44 46 48 47 45 46 46 44 45 47 48 49 51 53 56 59 61 60 61 62 63 63 65 66 69 69
40 39 37 36 38 36 38 40 41 42 42 45 46 47 47 50 51 49 49 46 46 46 50 53 56 59 62 64 66 64 64 65 64 65 68 71 71 65
42 40 37 36 37 38 40 42 43 45 46 47 49 50 51 53 52 50 47 46 47 50 54 57 59 63 67 66 66 65 66 66 66 68 72 75 69 61
46 45 44 44 43 42 42 43 43 44 47 48 50 51 50 47 44 45 47 48 49 53 57 58 60 63 65 65 66 64 63 66 68 71 74 73 66 61
49 49 50 48 48 49 48 47 47 47 47 47 49 46 43 42 43 45 47 48 51 53 56 58 61 62 63 65 63 60 63 66 71 74 71 66 64 62
49 49 49 50 50 50 48 48 47 48 51 51 50 47 45 45 48 50 50 53 56 58 59 58 58 61 60 61 63 62 64 69 72 70 66 63 60 58
48 49 48 49 50 49 50 50 49 49 49 50 49 49 49 49 51 53 55 57 60 59 59 57 55 56 60 62 62 65 67 69 67 66 61 57 56 55
50 50 50 50 50 49 49 50 51 50 50 50 49 50 52 53 53 55 60 58 57 56 55 54 55 57 58 59 63 66 69 66 65 63 57 51 51 53

GFSNE_250_spd_102.txt.gz
Wind_Speed
105 103 97 96 95 98 103 103 103 103 102 101 102 102 101 100 99 97 96 92 91 89 85 85 84 80 76 76 72 71 72 69 66 59 52 46 41 39
102 105 103 104 104 104 103 105 103 101 100 99 99 99 98 95 95 93 92 90 87 85 85 83 79 78 76 74 71 72 71 68 63 55 48 42 39 38
109 109 109 108 107 105 105 104 104 103 100 99 98 96 95 91 90 90 88 87 87 84 81 80 78 77 75 73 72 72 69 64 57 50 45 42 40 36
110 109 110 109 108 107 107 107 104 102 99 97 96 94 92 90 87 87 87 85 83 81 80 79 78 77 75 74 72 70 64 58 52 46 44 40 40 33
113 112 110 109 109 109 106 105 102 99 96 94 93 92 90 89 88 85 84 83 82 82 81 80 78 78 75 72 71 65 59 51 46 41 39 40 37 31
110 109 110 107 106 104 102 100 98 97 95 92 91 90 89 87 86 84 83 84 84 83 83 81 79 76 74 67 65 60 51 45 39 38 39 38 34 31
106 105 106 104 102 99 99 98 97 95 94 93 91 90 88 87 86 86 86 86 87 86 82 79 73 69 65 62 58 53 43 37 36 37 38 36 33 31
97 97 97 96 96 96 96 95 94 93 93 92 90 90 89 89 90 89 88 86 81 78 75 71 65 62 61 57 50 45 36 34 35 37 37 35 33 33
90 91 92 91 91 90 89 89 89 89 89 90 89 88 86 83 81 81 81 79 77 73 70 66 62 58 53 49 42 37 34 33 36 38 34 33 32 33
85 86 86 85 85 84 84 85 84 84 84 84 84 83 82 79 79 77 77 74 70 66 62 57 53 49 47 42 36 35 34 33 35 35 33 32 33 35
81 81 82 82 81 82 81 81 81 82 80 80 78 76 75 73 71 67 62 59 57 54 51 48 45 44 40 36 35 36 34 34 36 34 33 35 36 38
80 81 81 81 81 79 79 79 77 76 74 72 68 66 63 59 55 51 50 46 46 44 41 40 38 37 34 35 37 37 34 35 35 34 35 37 40 42
80 80 79 79 77 75 72 71 69 67 61 58 55 53 51 47 44 41 38 37 36 35 36 37 36 36 35 38 38 38 36 37 37 36 38 41 42 45
76 76 76 74 70 67 64 59 56 53 50 48 45 44 41 37 34 31 31 30 31 32 34 34 34 35 38 39 37 37 38 38 38 39 41 43 46 49
72 70 67 66 63 60 54 49 46 45 44 42 39 37 35 31 30 27 27 28 29 32 33 35 37 39 39 38 40 41 40 40 41 40 43 47 50 52
65 64 61 58 54 50 47 46 46 44 41 40 38 34 32 30 28 28 30 32 32 32 34 37 39 39 41 42 43 43 44 43 43 45 48 49 51 53
58 56 54 52 50 47 46 47 46 45 42 40 38 37 35 34 33 34 34 34 35 36 37 39 42 42 44 46 47 49 50 47 46 48 49 49 51 54
53 52 52 51 49 48 48 47 47 46 44 43 42 40 38 37 37 37 39 40 41 43 43 44 44 46 49 52 51 46 44 44 46 47 49 51 53 56
49 48 49 51 50 50 49 49 48 47 47 47 46 45 43 41 41 42 42 43 44 47 46 47 48 48 49 46 42 39 38 42 44 47 51 55 55 54
47 47 48 48 47 47 46 46 46 46 46 47 49 50 49 49 49 49 47 45 44 45 44 44 44 40 43 44 41 40 40 45 48 50 53 56 55 52
44 43 43 43 43 43 43 44 44 45 46 48 49 49 50 51 51 51 50 48 47 46 46 47 47 43 46 47 48 46 45 48 52 53 56 56 53 54
44 43 43 44 44 45 45 45 46 46 46 48 49 51 51 51 52 52 51 50 50 51 51 49 47 46 50 50 52 52 50 50 52 56 58 55 53 53
46 46 46 47 47 48 49 50 51 52 52 53 53 53 52 52 53 53 53 53 53 52 53 52 50 49 51 52 53 54 56 54 53 57 57 54 53 53

GFSNE_250_spd_105.txt.gz
Wind_Speed
112 118 123 117 111 112 111 110 106 104 102 103 105 104 103 101 100 99 98 96 90 87 83 83 81 79 78 74 70 68 67 65 64 63 61 57 53 45
122 119 113 110 110 111 112 113 110 108 107 108 107 105 102 99 100 97 94 92 88 86 84 81 79 76 75 71 69 67 67 65 64 64 61 55 46 41
121 117 115 115 117 118 116 112 112 108 107 107 105 103 101 99 97 96 94 91 88 86 82 80 77 75 73 70 69 68 68 67 65 61 55 50 43 37
122 120 117 116 116 116 115 114 115 114 111 110 108 105 104 102 99 95 91 87 86 84 81 78 76 72 70 71 70 71 67 65 63 57 52 46 40 34
120 117 118 116 115 115 116 115 114 114 112 109 106 103 101 99 96 91 89 88 85 82 79 75 74 73 73 73 71 70 67 63 55 52 46 40 33 32
119 116 115 114 113 111 111 111 112 109 107 104 102 98 96 94 93 91 89 86 83 81 78 77 77 76 75 72 70 66 59 56 50 47 40 34 31 32
114 112 112 110 109 108 107 106 105 103 100 97 94 92 91 90 89 86 83 82 81 79 78 77 75 73 69 67 63 59 55 50 46 42 36 31 31 31
113 109 107 105 102 100 99 98 94 92 90 88 86 85 85 84 83 81 79 77 75 74 74 73 70 67 65 62 59 56 51 48 42 37 32 32 33 32
105 102 97 96 94 93 92 90 88 85 85 83 82 81 81 79 78 77 75 74 73 71 70 70 64 62 60 57 53 48 45 42 36 33 32 34 34 32
93 92 90 89 89 88 87 85 83 81 79 79 78 77 76 75 73 71 69 68 66 63 63 57 57 55 51 48 45 43 41 37 34 34 35 35 33 32
88 87 87 87 87 86 84 82 81 79 77 76 75 74 73 70 68 65 59 54 52 50 49 48 46 44 42 41 38 37 36 36 35 36 37 35 33 32
85 84 82 82 82 82 81 79 79 76 74 73 71 69 67 63 57 52 49 46 44 43 41 39 37 36 35 34 33 32 33 35 36 38 38 36 33 33
80 80 80 82 81 79 78 76 74 72 70 66 63 63 58 52 49 45 43 40 37 36 33 32 32 30 29 30 30 32 34 36 38 40 39 37 35 35
77 79 79 78 76 74 72 71 70 68 64 62 58 53 48 45 43 40 37 34 30 29 29 29 28 28 29 32 34 37 37 39 42 41 42 41 39 39
75 75 73 72 70 68 67 66 64 62 58 52 49 47 44 42 39 37 33 30 28 27 27 27 28 30 32 33 35 36 39 42 42 40 42 44 43 42
69 68 67 66 65 63 62 60 57 53 50 48 46 45 44 40 37 34 34 31 30 29 28 29 30 32 34 36 37 39 41 42 42 45 46 44 45 46
64 62 61 59 58 57 55 54 52 49 47 48 47 46 45 43 40 37 36 36 35 33 32 33 36 36 37 37 40 42 43 46 49 49 50 50 51 50
57 56 56 55 54 53 53 53 52 51 50 49 49 48 47 46 44 41 39 39 38 38 37 40 42 44 45 44 44 46 49 49 51 51 53 52 48 46
53 51 51 51 50 51 52 52 51 50 50 50 50 49 48 47 46 46 45 44 42 41 42 44 44 45 46 45 48 52 49 50 52 52 48 44 41 43
51 49 49 49 50 49 49 48 47 46 46 45 45 45 45 46 47 48 49 50 50 52 53 51 51 48 48 50 51 51 46 46 49 46 45 44 43 44
49 48 47 48 48 47 46 46 44 43 43 43 43 44 44 45 46 47 48 48 49 50 52 53 52 51 51 50 52 52 48 47 48 47 48 49 50 50
48 47 47 46 45 45 45 45 45 44 45 45 45 46 46 47 48 48 49 50 51 52 52 53 51 50 53 53 53 52 52 51 51 52 52 53 54 52
50 47 47 47 46 46 47 47 48 49 50 50 51 52 52 53 54 54 55 55 55 54 54 54 54 53 54 55 54 54 54 52 49 52 55 55 55 54

GFSNE_250_spd_108.txt.gz
Wind_Speed
99 101 102 105 109 113 116 124 119 121 125 128 131 130 128 124 120 113 111 105 103 101 97 95 90 85 81 77 73 72 68 65 61 59 56 57 57 54
102 105 112 114 121 124 128 126 127 129 128 133 136 132 129 125 119 112 108 106 105 102 97 90 86 83 79 77 72 69 68 64 59 58 57 58 57 54
116 119 121 127 131 132 132 131 133 133 134 136 132 126 121 113 110 108 105 103 100 97 91 86 82 79 77 75 71 67 65 62 59 58 59 59 56 53
127 133 133 132 137 137 138 138 140 139 136 129 118 116 111 109 107 103 100 98 94 89 86 83 80 78 75 73 70 68 65 63 62 62 59 56 55 49
138 139 141 142 141 143 146 146 142 137 128 123 118 114 109 105 102 98 95 91 87 84 82 80 78 74 73 70 68 66 66 64 62 61 60 55 49 44
143 142 144 145 150 152 148 143 138 129 124 119 114 108 104 99 95 91 87 84 81 79 77 76 74 70 68 67 66 65 64 63 62 59 57 52 46 40
148 150 151 153 152 148 144 135 127 125 120 111 106 99 95 91 88 84 82 80 78 75 74 72 70 68 67 66 65 62 61 60 57 54 53 49 44 39
150 154 154 153 148 139 131 128 124 116 109 101 96 93 90 86 83 80 79 77 74 72 71 69 68 66 64 63 62 61 58 57 54 52 49 47 41 38
148 150 146 139 134 130 124 117 108 103 97 95 92 90 88 84 81 78 76 74 71 68 65 62 61 59 59 57 57 52 52 52 49 47 45 41 39 38
141 138 137 133 125 113 107 103 98 95 92 92 91 88 85 80 77 74 72 68 63 59 54 50 48 47 46 46 47 47 46 44 42 42 41 39 39 39
135 132 121 113 106 101 98 97 95 93 91 89 85 83 80 76 73 71 65 59 55 48 46 44 41 40 39 39 38 37 38 38 39 40 40 39 40 40
120 111 104 100 98 97 95 94 92 89 86 83 81 77 75 71 67 63 60 54 48 44 42 40 38 36 35 34 35 34 34 36 38 39 40 39 41 41
109 105 100 97 94 94 91 89 86 84 82 77 74 71 69 65 60 58 55 49 43 41 38 35 33 30 30 30 30 31 34 36 37 38 39 40 41 42
100 96 94 92 89 87 84 82 81 77 74 71 69 66 62 60 56 52 48 44 42 39 34 31 29 27 26 26 28 30 32 35 36 38 39 40 41 43
92 90 89 86 82 80 78 75 72 70 67 65 62 59 56 53 50 47 44 42 41 37 34 31 29 27 27 28 29 32 34 35 36 40 42 41 42 44
85 83 78 76 75 72 70 67 65 63 61 59 57 54 51 49 47 46 44 42 40 37 35 33 31 30 30 30 30 31 33 38 39 40 40 43 46 47
76 74 72 70 67 67 65 63 60 58 57 56 53 52 51 50 49 47 46 44 41 39 38 36 36 35 35 33 33 35 36 38 40 43 45 46 47 49
68 65 65 65 63 62 59 57 56 55 54 53 53 51 50 50 49 48 47 46 45 42 42 40 38 38 40 40 39 39 41 43 44 46 47 48 49 50
62 62 61 60 58 56 55 55 54 54 53 51 50 49 48 48 48 47 47 47 46 46 45 47 45 43 41 40 40 43 46 48 50 52 53 52 51 56
60 59 57 55 55 54 53 53 53 52 52 50 48 48 47 45 44 43 43 44 44 45 47 49 51 49 47 50 52 53 53 52 51 54 55 54 53 53
58 56 54 53 54 54 53 52 52 52 50 48 46 45 44 43 42 42 42 43 44 46 47 49 50 51 54 57 61 61 58 57 56 56 56 56 55 53
54 55 55 53 53 53 53 52 52 50 49 48 46 45 44 44 45 45 45 46 48 49 51 50 52 52 55 56 58 59 58 57 56 55 57 56 56 57
55 54 55 55 55 54 54 53 53 52 51 50 48 47 47 47 48 49 50 51 52 54 55 56 56 57 57 58 59 60 59 58 56 57 60 59 59 59

GFSNE_250_spd_111.txt.gz
Wind_Speed
74 73 76 85 84 91 94 102 103 103 94 95 105 113 119 122 135 133 135 140 143 137 116 103 92 83 78 76 73 66 65 62 58 58 57 53 49 48
83 89 89 92 97 105 100 104 98 106 109 115 116 121 125 134 138 139 142 144 136 116 102 90 84 78 76 72 69 65 62 62 58 54 53 51 48 47
94 99 101 104 102 110 99 114 110 113 118 122 122 131 140 141 141 145 142 129 116 103 91 83 79 76 73 70 66 63 60 58 57 53 52 50 47 45
107 109 110 114 107 115 116 116 125 127 127 129 138 142 141 144 147 144 132 117 106 93 86 81 76 73 71 68 65 60 58 56 55 52 51 50 47 45
111 114 113 117 118 120 122 136 134 131 133 139 143 147 149 149 147 133 127 104 94 88 84 81 77 73 70 67 63 60 56 54 53 52 51 52 50 49
112 114 119 125 127 135 137 138 138 140 143 147 151 152 152 146 137 128 106 96 90 85 83 79 74 72 70 66 62 59 56 54 53 53 55 52 52 50
127 129 134 139 143 142 142 141 140 145 152 154 156 156 151 142 128 110 99 92 89 86 80 76 72 69 65 63 60 57 55 52 50 52 54 54 53 51
137 140 142 142 139 142 143 146 147 149 155 159 159 161 142 129 109 100 96 91 89 84 79 74 69 64 60 57 55 53 52 50 49 51 51 56 51 49
139 143 145 144 146 148 149 150 151 155 159 159 159 145 123 106 99 94 92 89 84 80 74 69 62 57 51 46 44 43 43 44 46 46 49 50 49 46
143 145 148 150 152 152 152 153 155 157 161 150 136 116 107 100 94 91 88 84 80 74 69 62 55 48 43 40 39 37 37 37 37 40 43 44 42 42
147 151 153 154 155 155 156 157 159 161 153 129 113 107 101 94 91 88 83 80 74 69 63 56 49 43 41 39 36 35 33 32 32 34 34 36 38 39
158 155 157 158 161 161 162 161 164 144 125 114 107 99 95 91 87 82 76 72 67 62 57 49 44 41 39 36 33 29 30 31 32 33 34 35 37 37
163 164 164 167 160 160 164 156 134 119 112 104 97 93 89 86 79 73 68 64 60 55 51 44 40 38 36 33 29 27 27 29 29 31 33 34 36 38
166 166 169 169 168 158 140 123 110 101 96 93 89 86 81 75 70 66 61 56 53 48 45 40 38 36 33 30 29 26 25 24 24 27 30 33 35 38
150 148 141 136 127 119 113 105 98 93 88 84 80 76 72 68 63 58 55 51 47 43 41 38 38 36 32 29 27 26 25 25 25 27 29 31 33 35
122 117 111 108 105 100 95 90 87 83 78 75 71 68 65 61 57 54 50 47 44 41 40 38 38 37 35 30 28 27 27 29 30 31 32 33 33 35
101 97 96 95 90 85 83 81 77 73 69 67 64 62 58 55 52 50 47 46 44 42 40 40 40 39 38 36 32 31 31 31 31 32 34 36 38 41
88 84 82 79 78 76 74 71 67 65 63 61 59 56 54 51 49 48 47 46 45 44 43 43 43 43 41 40 38 37 37 37 38 37 37 38 38 41
77 75 72 71 70 69 67 63 61 60 59 55 54 52 51 49 48 48 47 46 45 44 44 44 44 44 44 43 44 45 44 43 42 42 41 43 43 45
69 68 66 64 65 63 61 60 59 57 55 53 52 51 50 49 48 48 47 44 43 42 42 42 41 40 42 44 45 48 49 47 47 47 47 48 47 47
66 64 62 62 61 59 59 57 55 54 53 52 51 51 50 48 47 46 45 43 41 40 40 39 39 39 41 44 47 48 48 51 54 54 56 57 56 56
65 63 60 59 58 57 55 54 53 53 53 52 51 50 50 49 48 47 46 45 44 43 42 42 42 42 44 46 49 50 50 51 53 55 57 60 61 60
62 61 59 57 55 54 54 54 54 54 54 53 53 52 52 51 50 50 49 48 46 46 47 46 45 46 48 50 53 55 56 57 57 56 60 61 60 60

GFSNE_250_spd_114.txt.gz
Wind_Speed
73 76 80 81 80 85 86 86 89 90 90 89 90 101 111 102 110 112 116 113 129 130 134 134 142 133 112 82 72 63 59 56 52 48 46 43 39 38
81 82 83 85 85 86 86 88 90 91 92 96 103 109 112 109 111 112 120 130 139 134 138 140 144 129 95 80 70 64 58 54 52 48 44 44 39 37
85 85 84 84 87 84 89 93 95 100 105 107 108 116 111 122 118 130 135 137 135 140 142 145 147 110 93 80 72 64 60 54 50 48 44 41 40 41
91 90 87 90 91 93 92 99 102 102 107 112 116 115 116 120 130 137 140 140 141 147 146 143 147 106 92 81 71 65 60 54 51 47 45 41 40 40
92 91 96 92 95 98 98 97 107 113 111 114 119 126 128 129 138 139 137 139 143 144 148 145 128 100 91 78 71 66 60 53 47 45 44 42 42 41
101 98 99 102 103 108 107 107 119 116 120 126 128 133 136 141 141 142 144 142 147 143 150 151 110 95 86 79 71 62 56 49 44 44 44 43 44 43
103 109 109 110 111 115 119 117 121 124 127 130 133 136 141 146 144 144 140 149 150 146 153 111 100 91 85 77 66 58 50 47 41 40 42 45 45 46
114 116 112 111 118 123 122 123 126 129 132 137 136 139 146 148 145 152 154 154 147 153 132 106 91 88 82 72 62 51 45 39 37 36 39 44 46 49
113 119 123 128 129 127 130 131 135 133 142 145 144 143 150 147 152 158 157 155 138 136 102 90 86 83 76 67 57 47 40 37 34 33 35 40 43 46
136 138 136 131 129 131 134 136 143 147 143 146 150 153 151 158 163 170 158 147 135 107 91 84 80 75 68 60 52 44 38 34 30 29 32 35 38 45
139 139 136 133 136 140 144 149 152 152 152 151 156 156 158 151 160 141 122 116 103 89 84 78 73 68 61 54 47 40 36 32 30 28 29 31 37 41
134 137 143 144 149 148 153 157 157 150 157 161 160 164 166 157 144 126 107 101 88 83 77 71 65 60 52 48 41 36 33 29 27 27 27 30 34 38
141 145 148 149 155 160 160 157 162 167 163 166 167 170 160 143 124 109 94 85 81 75 68 62 56 52 47 42 36 32 29 28 27 25 26 27 31 33
158 159 158 160 164 163 162 166 170 172 170 160 144 135 128 114 98 90 84 79 73 66 60 54 50 46 43 37 33 31 29 26 25 24 24 24 26 29
163 164 168 167 164 169 165 172 167 162 149 139 130 110 99 92 86 79 74 70 64 59 53 49 45 42 39 36 32 30 29 27 25 23 23 24 24 26
163 171 165 161 165 164 149 144 140 133 122 109 99 90 83 79 75 71 67 62 58 53 49 45 42 40 37 36 34 31 30 28 26 26 24 23 24 25
163 162 161 152 149 142 133 122 114 104 92 86 81 77 74 70 67 64 60 58 53 49 46 44 42 40 38 38 36 34 31 32 30 29 27 27 28 29
150 135 129 122 116 109 100 93 90 83 77 73 71 69 65 62 61 59 55 52 49 46 44 43 42 41 40 40 38 38 37 35 37 36 34 32 32 33
112 105 99 94 88 84 80 77 73 71 68 65 63 60 58 57 56 52 50 48 46 45 43 42 41 40 40 39 41 41 42 41 40 41 40 39 38 39
87 82 79 76 73 70 69 67 63 62 61 59 57 55 53 52 50 49 48 47 46 46 44 41 38 37 37 39 40 40 42 42 43 43 44 45 45 45
75 73 70 67 65 65 64 61 62 59 57 55 52 51 50 50 49 48 48 47 46 46 45 41 38 38 38 38 38 38 37 39 41 42 44 46 49 51
69 68 66 65 64 63 61 62 61 58 54 52 51 49 48 48 49 48 48 48 48 47 46 44 42 40 40 40 40 39 39 40 41 43 45 47 48 50
69 68 66 65 63 61 61 60 59 56 54 52 50 50 50 50 50 50 51 50 50 50 49 47 46 45 44 45 45 45 45 45 44 47 50 50 51 51

GFSNE_250_spd_117.txt.gz
Wind_Speed
79 81 87 90 87 87 89 85 84 80 82 86 88 87 88 89 91 95 92 90 96 104 103 110 118 130 131 133 134 141 115 102 67 58 47 42 38 35
86 88 89 86 89 88 85 85 86 84 88 91 91 91 95 97 97 96 89 101 106 108 116 119 128 138 136 139 144 134 101 82 68 57 49 44 39 36
91 87 90 89 89 84 88 87 86 88 91 92 93 96 98 101 97 104 99 113 115 116 125 134 136 142 143 145 148 125 96 81 65 55 47 42 40 39
93 92 93 89 89 90 91 90 91 91 96 96 96 98 98 98 104 109 116 118 128 126 129 136 145 143 147 146 155 117 93 75 63 51 43 40 39 38
99 98 97 92 92 90 94 94 96 97 100 100 99 96 101 112 112 116 119 121 126 136 134 139 150 146 152 148 129 101 90 75 58 49 41 38 38 39
97 94 95 92 96 93 99 99 99 101 101 98 103 107 110 112 117 125 129 135 130 143 139 145 145 148 155 123 107 94 77 70 54 44 38 34 34 38
94 94 97 103 94 101 101 101 103 104 107 107 113 114 116 125 123 128 133 139 139 143 147 149 141 150 129 115 95 83 73 64 50 41 35 31 32 40
105 104 108 103 105 104 105 104 105 111 110 118 117 115 125 142 137 138 134 140 142 149 149 148 153 139 110 93 86 73 65 57 48 40 34 32 31 39
103 106 109 108 109 107 108 112 111 122 121 122 121 140 141 134 138 143 138 141 144 148 152 143 130 111 101 89 73 64 59 53 44 39 34 32 33 36
116 115 111 111 115 115 110 123 119 127 125 136 134 141 140 134 140 138 142 150 150 140 153 144 120 98 88 76 66 58 53 48 42 37 34 31 31 34
116 119 115 118 110 119 122 123 133 139 147 144 145 140 137 135 143 147 153 156 147 145 151 127 112 92 78 66 57 51 48 44 40 35 33 31 30 32
122 120 121 126 127 129 137 146 140 135 133 139 136 144 144 151 155 150 150 142 146 145 135 107 91 78 68 58 50 46 44 41 36 33 32 29 29 30
129 129 130 134 137 141 142 140 142 141 148 144 145 148 152 161 157 153 146 146 140 116 102 88 77 68 60 51 45 42 40 38 33 31 30 29 28 30
136 140 142 145 145 143 144 148 146 152 153 152 160 154 153 149 145 140 137 140 107 101 85 75 68 61 53 48 43 39 37 35 32 31 29 27 28 29
147 150 153 159 158 159 163 160 162 158 165 157 148 134 138 124 135 124 125 109 90 78 72 66 60 54 49 45 42 38 36 34 32 31 30 28 27 28
163 159 160 158 153 156 151 150 149 155 135 152 142 133 136 126 113 101 88 80 74 67 64 59 54 50 45 44 42 38 36 34 33 33 32 30 29 28
159 154 159 154 153 157 146 147 149 160 149 128 140 128 103 92 85 76 71 67 63 61 58 54 50 46 43 42 41 39 37 36 36 35 35 33 30 30
162 161 161 165 148 147 148 145 142 136 146 124 103 88 78 74 66 63 62 60 58 57 54 50 46 43 41 40 39 39 38 38 39 39 38 36 34 33
153 164 163 144 132 125 119 101 94 89 87 82 75 68 63 60 58 56 57 56 56 54 50 46 43 40 39 38 39 39 40 40 41 41 41 41 39 39
112 111 109 102 94 89 85 80 76 73 69 65 61 60 56 56 56 55 54 53 52 50 46 43 41 40 38 38 39 37 37 39 41 42 43 45 44 43
89 89 85 83 80 76 73 69 66 64 60 59 58 57 55 56 54 52 51 51 49 47 44 41 41 41 40 39 39 37 37 39 41 41 42 44 47 47
80 78 76 74 72 69 67 66 64 62 61 59 57 58 57 55 51 50 50 49 48 47 46 43 42 41 42 43 41 41 41 42 43 43 43 45 45 46
74 74 72 71 69 67 66 66 64 62 62 61 59 58 57 55 52 51 49 49 48 48 48 47 45 45 44 44 46 46 46 45 45 47 49 47 46 47

GFSNE_250_spd_120.txt.gz
Wind_Speed
70 74 80 81 78 79 79 81 80 80 84 88 91 87 87 88 86 91 90 92 94 96 99 93 96 97 106 117 122 123 125 132 126 113 76 61 48 39
78 80 73 74 77 79 84 82 84 85 88 89 92 89 90 93 93 93 94 96 97 97 101 101 104 104 111 122 129 121 125 137 122 102 71 56 48 35
76 77 79 78 86 83 85 85 90 90 91 92 95 91 90 96 96 93 99 105 101 102 103 107 107 110 120 134 129 127 134 138 128 85 66 54 43 34
83 84 88 89 89 91 93 94 95 92 91 95 95 91 94 99 107 102 100 101 101 102 103 110 112 112 129 133 128 129 135 137 104 77 60 50 41 32
84 83 87 89 92 97 98 99 96 94 93 93 97 94 98 104 108 108 105 105 102 107 111 118 124 129 132 129 127 137 141 117 85 69 55 46 36 31
87 91 95 97 96 95 94 94 96 98 98 99 102 103 102 107 109 107 104 107 105 113 109 122 133 124 134 127 137 141 130 113 76 64 54 41 33 28
98 96 100 100 94 93 95 96 97 100 101 105 99 106 109 112 109 108 108 112 116 124 127 129 133 127 140 142 138 134 120 86 69 60 48 38 32 27
96 94 91 92 94 99 93 99 106 105 102 100 107 104 107 105 112 116 116 119 115 126 128 142 137 138 145 144 137 125 115 88 59 54 46 36 31 27
95 97 97 97 99 96 101 98 99 101 100 105 109 109 119 115 118 119 120 125 127 138 142 137 142 147 145 132 115 122 84 61 56 49 42 34 31 29
101 101 101 104 106 105 107 109 109 109 110 114 116 116 120 120 125 127 125 126 138 139 144 152 151 148 129 121 123 90 67 54 49 46 38 32 31 30
107 108 107 109 112 113 115 129 132 114 117 114 116 123 123 123 130 128 134 135 146 150 148 158 140 125 126 112 104 74 56 50 45 41 36 32 29 29
121 118 119 118 116 117 117 116 116 117 117 120 128 130 129 127 136 133 136 140 151 155 144 132 129 107 112 105 77 58 50 45 40 37 34 31 30 27
126 122 120 120 120 119 119 125 126 130 129 129 132 132 136 139 142 142 146 145 149 138 133 124 107 105 102 88 62 51 46 41 37 35 31 30 31 29
133 131 134 130 128 129 131 133 133 135 139 143 141 144 147 149 156 151 144 141 134 122 115 110 104 82 75 65 52 47 43 38 35 33 31 31 31 30
139 138 138 140 139 143 139 140 144 144 150 150 152 158 148 148 142 137 142 136 128 99 118 107 80 68 59 53 47 43 41 38 35 34 32 31 31 32
149 145 149 150 154 151 153 149 156 157 153 154 157 157 143 137 132 120 121 117 97 99 82 78 67 59 51 46 43 42 39 38 36 36 35 34 33 32
164 164 163 159 162 160 162 152 155 158 140 144 145 135 134 130 131 115 103 90 78 73 68 61 57 53 48 43 42 41 38 37 38 37 37 37 36 36
163 162 158 153 162 161 158 158 155 149 140 134 137 133 122 108 95 87 78 68 63 59 57 55 52 49 47 43 41 39 38 37 38 38 39 39 40 40
155 156 155 154 156 147 144 143 144 143 131 113 104 93 86 80 72 65 59 55 53 53 52 50 48 47 44 43 40 37 37 38 39 39 40 42 42 43
122 124 126 126 119 114 110 108 101 95 91 85 78 70 63 59 55 52 52 51 50 50 48 45 44 45 44 42 42 37 38 39 38 40 41 43 44 45
96 96 96 95 94 92 91 89 83 77 74 68 62 57 55 52 49 49 50 52 51 48 45 43 43 44 45 44 41 39 40 39 39 40 41 42 44 46
80 80 80 80 80 80 79 76 72 67 64 61 57 55 54 52 52 51 51 51 50 47 45 43 44 45 45 45 44 43 42 43 42 42 43 43 43 44
73 73 73 73 73 72 70 69 67 65 63 60 57 57 56 55 53 52 55 52 49 47 46 45 45 46 46 47 48 49 48 46 46 47 46 45 46 47

GFSNE_250_spd_123.txt.gz
Wind_Speed
58 63 70 67 70 70 79 77 86 84 84 83 83 83 79 79 81 85 89 83 84 89 93 91 98 98 99 96 99 99 100 106 111 127 129 122 99 90
69 70 76 73 77 78 83 86 89 90 87 88 87 82 86 84 88 89 89 87 89 93 91 95 102 98 100 101 107 109 113 113 116 130 129 113 102 77
75 78 80 81 85 87 87 83 89 93 88 86 87 89 84 89 90 92 90 88 91 99 96 97 99 96 99 105 109 107 113 114 119 131 118 115 94 67
86 83 79 86 86 86 87 89 89 89 92 88 87 89 93 92 94 95 94 95 99 103 98 97 98 97 98 114 110 113 116 118 119 132 123 103 91 60
84 85 85 84 86 89 90 91 88 87 87 90 91 94 97 102 94 96 95 101 101 99 99 96 97 107 112 116 113 114 120 121 128 130 111 94 78 48
89 88 87 86 89 90 88 91 90 89 89 92 95 98 102 98 98 99 101 104 104 99 98 103 108 111 115 117 117 120 126 131 130 118 104 98 80 48
92 89 89 87 86 91 95 94 96 97 96 99 103 104 101 99 101 104 104 105 98 101 104 107 107 114 114 122 121 124 133 137 131 117 98 90 68 44
94 94 97 99 100 100 102 107 105 110 109 103 106 101 98 100 103 105 99 98 101 107 118 112 113 117 121 121 129 137 136 129 120 105 99 78 52 41
105 104 104 109 106 106 108 103 103 105 103 101 100 101 100 103 101 102 102 108 111 116 117 120 119 124 127 128 134 143 129 122 112 95 84 57 48 38
102 100 103 102 102 102 103 103 105 101 104 105 103 107 104 105 101 106 113 118 119 120 119 124 125 129 130 139 139 133 126 124 106 88 76 53 45 36
108 110 109 111 108 107 105 105 105 105 108 105 106 108 107 113 113 116 119 122 119 121 123 128 132 139 147 136 133 123 118 112 90 85 60 44 38 33
114 113 111 112 109 109 110 113 115 115 114 116 119 115 114 120 121 120 123 128 126 131 131 136 141 150 129 127 129 126 103 92 86 61 48 41 34 32
124 123 123 122 121 120 121 121 118 120 123 119 122 123 123 127 128 133 131 130 135 136 140 142 142 142 128 123 123 97 88 84 66 52 44 39 34 32
128 128 129 127 124 122 123 122 126 127 127 128 130 134 136 133 133 139 138 143 144 143 128 137 128 129 123 110 90 83 74 69 54 47 41 37 35 33
140 137 135 135 134 133 133 134 137 139 140 141 140 142 143 142 143 137 142 144 143 141 133 129 137 125 115 74 79 76 69 58 47 44 40 37 36 34
142 140 141 141 142 140 141 144 143 141 143 141 140 142 145 149 147 144 148 143 137 138 131 131 109 91 79 75 71 65 58 49 43 42 39 37 38 36
157 158 155 154 152 150 146 143 143 141 143 145 143 145 153 143 145 147 140 140 129 122 110 90 80 73 69 64 61 55 50 44 41 40 37 36 37 38
156 158 162 163 166 166 164 164 159 152 157 154 150 148 148 144 143 135 127 122 112 90 79 73 66 62 57 57 54 48 45 43 40 38 37 36 37 39
120 130 140 146 151 152 152 152 150 148 149 145 144 140 133 127 123 118 104 89 78 70 64 60 56 53 54 51 48 46 43 41 40 37 37 38 39 41
95 100 106 110 113 116 119 121 122 121 120 120 119 116 111 102 94 85 75 69 60 55 52 50 51 49 47 47 44 43 44 41 39 38 38 38 39 41
85 87 89 91 93 96 96 97 98 98 98 97 93 87 80 77 72 67 62 56 52 49 47 48 49 49 48 45 43 42 41 41 40 40 39 39 40 41
76 77 78 80 82 81 81 81 81 80 80 79 74 68 67 63 58 54 54 51 47 46 46 45 45 49 48 46 43 42 42 42 42 42 41 42 42 42
70 69 69 71 73 73 71 72 71 70 71 69 65 61 59 55 52 49 49 49 48 46 46 47 49 46 45 46 45 43 42 42 43 44 44 45 47 47